Time,TemperatureF,DewpointF,PressureIn,WindDirection,WindDirectionDegrees,WindSpeedMPH,WindSpeedGustMPH,Humidity,HourlyPrecipIn,Conditions,Clouds,dailyrainin,SolarRadiationWatts/m^2,SoftwareType,DateUTC
2013-07-18 00:01:00,76.5,72.0,30.07,North,5,0.0,0.0,86,0.00,,,0.00,0,Wunderground v.1.15,2013-07-18 05:01:00,
2013-07-18 00:03:00,76.4,71.9,30.07,North,5,0.0,0.0,86,0.00,,,0.00,0,Wunderground v.1.15,2013-07-18 05:03:00,
2013-07-18 00:05:00,76.4,71.9,30.07,North,5,0.0,0.0,86,0.00,,,0.00,0,Wunderground v.1.15,2013-07-18 05:05:00,
2013-07-18 00:06:00,76.4,71.9,30.07,North,5,0.0,0.0,86,0.00,,,0.00,0,Wunderground v.1.15,2013-07-18 05:06:00,
2013-07-18 00:07:00,76.4,71.9,30.07,North,5,0.0,0.0,86,0.00,,,0.00,0,Wunderground v.1.15,2013-07-18 05:07:00,
2013-07-18 00:12:00,76.3,71.8,30.07,North,5,0.0,0.0,86,0.00,,,0.00,0,Wunderground v.1.15,2013-07-18 05:12:00,
2013-07-18 00:13:00,76.2,71.7,30.08,North,5,0.0,0.0,86,0.00,,,0.00,0,Wunderground v.1.15,2013-07-18 05:13:00,
2013-07-18 00:14:00,76.2,71.7,30.08,North,5,0.0,0.0,86,0.00,,,0.00,0,Wunderground v.1.15,2013-07-18 05:14:00,
2013-07-18 00:15:00,76.2,71.7,30.08,North,5,0.0,0.0,86,0.00,,,0.00,0,Wunderground v.1.15,2013-07-18 05:15:00,
2013-07-18 00:17:00,76.2,71.7,30.08,North,5,0.0,0.0,86,0.00,,,0.00,0,Wunderground v.1.15,2013-07-18 05:17:00,
2013-07-18 00:20:00,76.2,71.4,30.08,North,5,0.0,0.0,85,0.00,,,0.00,0,Wunderground v.1.15,2013-07-18 05:20:00,
2013-07-18 00:22:00,76.2,71.4,30.08,North,360,0.0,0.0,85,0.00,,,0.00,0,Wunderground v.1.15,2013-07-18 05:22:00,
2013-07-18 00:24:00,76.1,71.3,30.08,North,360,0.0,0.0,85,0.00,,,0.00,0,Wunderground v.1.15,2013-07-18 05:24:00,
2013-07-18 00:27:00,76.0,71.2,30.08,North,360,0.0,0.0,85,0.00,,,0.00,0,Wunderground v.1.15,2013-07-18 05:27:00,
2013-07-18 00:30:00,75.9,71.4,30.08,North,360,0.0,0.0,86,0.00,,,0.00,0,Wunderground v.1.15,2013-07-18 05:30:00,
2013-07-18 00:31:00,75.9,71.4,30.08,North,360,0.0,0.0,86,0.00,,,0.00,0,Wunderground v.1.15,2013-07-18 05:31:00,
2013-07-18 00:32:00,75.8,71.3,30.08,North,360,0.0,0.0,86,0.00,,,0.00,0,Wunderground v.1.15,2013-07-18 05:32:00,
2013-07-18 00:36:00,75.7,71.2,30.08,North,360,0.0,0.0,86,0.00,,,0.00,0,Wunderground v.1.15,2013-07-18 05:36:00,
2013-07-18 00:38:00,75.7,71.2,30.08,North,360,0.0,0.0,86,0.00,,,0.00,0,Wunderground v.1.15,2013-07-18 05:38:00,
2013-07-18 00:39:00,75.7,71.2,30.08,North,360,0.0,0.0,86,0.00,,,0.00,0,Wunderground v.1.15,2013-07-18 05:39:00,
2013-07-18 00:40:00,75.7,71.2,30.08,North,360,0.0,0.0,86,0.00,,,0.00,0,Wunderground v.1.15,2013-07-18 05:40:00,
2013-07-18 00:43:00,75.7,71.2,30.08,North,360,0.0,0.0,86,0.00,,,0.00,0,Wunderground v.1.15,2013-07-18 05:43:00,
2013-07-18 00:44:00,75.8,71.3,30.08,North,360,0.0,0.0,86,0.00,,,0.00,0,Wunderground v.1.15,2013-07-18 05:44:00,
2013-07-18 00:46:00,75.8,71.0,30.08,North,360,0.0,0.0,85,0.00,,,0.00,0,Wunderground v.1.15,2013-07-18 05:46:00,
2013-07-18 00:47:00,75.8,71.0,30.08,North,360,0.0,0.0,85,0.00,,,0.00,0,Wunderground v.1.15,2013-07-18 05:47:00,
2013-07-18 00:49:00,75.8,71.0,30.08,North,360,0.0,0.0,85,0.00,,,0.00,0,Wunderground v.1.15,2013-07-18 05:49:00,
2013-07-18 00:50:00,75.8,71.0,30.08,North,360,0.0,0.0,85,0.00,,,0.00,0,Wunderground v.1.15,2013-07-18 05:50:00,
2013-07-18 00:51:00,75.7,70.9,30.08,North,360,0.0,0.0,85,0.00,,,0.00,0,Wunderground v.1.15,2013-07-18 05:51:00,
2013-07-18 00:52:00,75.7,70.9,30.08,North,360,0.0,0.0,85,0.00,,,0.00,0,Wunderground v.1.15,2013-07-18 05:52:00,
2013-07-18 00:56:00,75.6,71.1,30.08,North,360,0.0,0.0,86,0.00,,,0.00,0,Wunderground v.1.15,2013-07-18 05:56:00,
2013-07-18 00:57:00,75.5,71.0,30.08,North,360,0.0,0.0,86,0.00,,,0.00,0,Wunderground v.1.15,2013-07-18 05:57:00,
2013-07-18 01:02:00,75.1,70.6,30.08,North,360,0.0,0.0,86,0.00,,,0.00,0,Wunderground v.1.15,2013-07-18 06:02:00,
2013-07-18 01:06:00,74.8,70.7,30.08,North,360,0.0,0.0,87,0.00,,,0.00,0,Wunderground v.1.15,2013-07-18 06:06:00,
2013-07-18 01:07:00,74.8,70.7,30.08,North,360,0.0,0.0,87,0.00,,,0.00,0,Wunderground v.1.15,2013-07-18 06:07:00,
2013-07-18 01:09:00,74.7,70.6,30.08,North,360,0.0,0.0,87,0.00,,,0.00,0,Wunderground v.1.15,2013-07-18 06:09:00,
2013-07-18 01:11:00,74.7,70.6,30.08,North,360,0.0,0.0,87,0.00,,,0.00,0,Wunderground v.1.15,2013-07-18 06:11:00,
2013-07-18 01:12:00,74.7,70.6,30.08,North,360,0.0,0.0,87,0.00,,,0.00,0,Wunderground v.1.15,2013-07-18 06:12:00,
2013-07-18 01:15:00,74.6,70.5,30.08,North,360,0.0,0.0,87,0.00,,,0.00,0,Wunderground v.1.15,2013-07-18 06:15:00,
2013-07-18 01:17:00,74.6,70.8,30.07,North,360,0.0,0.0,88,0.00,,,0.00,0,Wunderground v.1.15,2013-07-18 06:17:00,
2013-07-18 01:18:00,74.7,70.9,30.07,North,360,0.0,0.0,88,0.00,,,0.00,0,Wunderground v.1.15,2013-07-18 06:18:00,
2013-07-18 01:21:00,74.8,71.0,30.07,North,360,0.0,0.0,88,0.00,,,0.00,0,Wunderground v.1.15,2013-07-18 06:21:00,
2013-07-18 01:22:00,74.8,71.0,30.07,North,360,0.0,0.0,88,0.00,,,0.00,0,Wunderground v.1.15,2013-07-18 06:22:00,
2013-07-18 01:25:00,74.9,70.8,30.07,North,360,0.0,0.0,87,0.00,,,0.00,0,Wunderground v.1.15,2013-07-18 06:25:00,
2013-07-18 01:27:00,74.9,70.8,30.07,North,360,0.0,0.0,87,0.00,,,0.00,0,Wunderground v.1.15,2013-07-18 06:27:00,
2013-07-18 01:30:00,74.8,70.7,30.07,NE,55,2.0,2.0,87,0.00,,,0.00,0,Wunderground v.1.15,2013-07-18 06:30:00,
2013-07-18 01:32:00,74.9,71.1,30.07,NE,55,0.0,0.0,88,0.00,,,0.00,0,Wunderground v.1.15,2013-07-18 06:32:00,
2013-07-18 01:33:00,74.9,71.1,30.07,NE,55,0.0,0.0,88,0.00,,,0.00,0,Wunderground v.1.15,2013-07-18 06:33:00,
2013-07-18 01:34:00,74.9,71.1,30.07,NE,55,0.0,0.0,88,0.00,,,0.00,0,Wunderground v.1.15,2013-07-18 06:34:00,
2013-07-18 01:36:00,75.0,71.2,30.07,NE,55,0.0,0.0,88,0.00,,,0.00,0,Wunderground v.1.15,2013-07-18 06:36:00,
2013-07-18 01:39:00,75.0,71.2,30.07,East,79,0.0,0.0,88,0.00,,,0.00,0,Wunderground v.1.15,2013-07-18 06:39:00,
2013-07-18 01:40:00,75.0,71.2,30.07,East,82,0.0,0.0,88,0.00,,,0.00,0,Wunderground v.1.15,2013-07-18 06:40:00,
2013-07-18 01:41:00,75.1,71.0,30.07,East,82,0.0,0.0,87,0.00,,,0.00,0,Wunderground v.1.15,2013-07-18 06:41:00,
2013-07-18 01:42:00,75.1,71.0,30.07,East,84,0.0,0.0,87,0.00,,,0.00,0,Wunderground v.1.15,2013-07-18 06:42:00,
2013-07-18 01:46:00,75.3,71.2,30.07,East,84,0.0,0.0,87,0.00,,,0.00,0,Wunderground v.1.15,2013-07-18 06:46:00,
2013-07-18 01:47:00,75.3,71.2,30.07,East,84,0.0,0.0,87,0.00,,,0.00,0,Wunderground v.1.15,2013-07-18 06:47:00,
2013-07-18 01:49:00,75.3,71.2,30.07,East,86,0.0,0.0,87,0.00,,,0.00,0,Wunderground v.1.15,2013-07-18 06:49:00,
2013-07-18 01:53:00,75.1,71.0,30.07,East,86,0.0,0.0,87,0.00,,,0.00,0,Wunderground v.1.15,2013-07-18 06:53:00,
2013-07-18 01:57:00,74.8,71.0,30.07,East,87,0.0,0.0,88,0.00,,,0.00,0,Wunderground v.1.15,2013-07-18 06:57:00,
2013-07-18 01:58:00,74.7,70.9,30.07,East,86,0.0,0.0,88,0.00,,,0.00,0,Wunderground v.1.15,2013-07-18 06:58:00,
2013-07-18 02:00:00,74.6,70.8,30.07,East,86,0.0,0.0,88,0.00,,,0.00,0,Wunderground v.1.15,2013-07-18 07:00:00,
2013-07-18 02:01:00,74.6,70.8,30.07,East,87,0.0,0.0,88,0.00,,,0.00,0,Wunderground v.1.15,2013-07-18 07:01:00,
2013-07-18 02:02:00,74.5,71.0,30.07,East,88,0.0,1.0,89,0.00,,,0.00,0,Wunderground v.1.15,2013-07-18 07:02:00,
2013-07-18 02:03:00,74.4,70.9,30.07,East,88,0.0,1.0,89,0.00,,,0.00,0,Wunderground v.1.15,2013-07-18 07:03:00,
2013-07-18 02:06:00,74.6,71.1,30.07,East,90,0.0,1.0,89,0.00,,,0.00,0,Wunderground v.1.15,2013-07-18 07:06:00,
2013-07-18 02:07:00,74.6,71.1,30.07,East,90,1.0,1.0,89,0.00,,,0.00,0,Wunderground v.1.15,2013-07-18 07:07:00,
2013-07-18 02:08:00,74.6,71.1,30.07,East,90,0.0,1.0,89,0.00,,,0.00,0,Wunderground v.1.15,2013-07-18 07:08:00,
2013-07-18 02:09:00,74.6,70.8,30.07,East,90,0.0,1.0,88,0.00,,,0.00,0,Wunderground v.1.15,2013-07-18 07:09:00,
2013-07-18 02:11:00,74.6,71.1,30.07,East,91,0.0,1.0,89,0.00,,,0.00,0,Wunderground v.1.15,2013-07-18 07:11:00,
2013-07-18 02:13:00,74.6,71.1,30.07,East,101,0.0,1.0,89,0.00,,,0.00,0,Wunderground v.1.15,2013-07-18 07:13:00,
2013-07-18 02:14:00,74.6,71.1,30.07,East,101,0.0,1.0,89,0.00,,,0.00,0,Wunderground v.1.15,2013-07-18 07:14:00,
2013-07-18 02:17:00,74.6,70.8,30.07,East,101,0.0,1.0,88,0.00,,,0.00,0,Wunderground v.1.15,2013-07-18 07:17:00,
2013-07-18 02:18:00,74.5,70.7,30.07,East,101,0.0,1.0,88,0.00,,,0.00,0,Wunderground v.1.15,2013-07-18 07:18:00,
2013-07-18 02:19:00,74.5,70.7,30.07,East,101,0.0,1.0,88,0.00,,,0.00,0,Wunderground v.1.15,2013-07-18 07:19:00,
2013-07-18 02:20:00,74.5,71.0,30.07,East,101,0.0,0.0,89,0.00,,,0.00,0,Wunderground v.1.15,2013-07-18 07:20:00,
2013-07-18 02:22:00,74.4,70.9,30.07,ESE,104,0.0,0.0,89,0.00,,,0.00,0,Wunderground v.1.15,2013-07-18 07:22:00,
2013-07-18 02:24:00,74.4,70.9,30.07,ESE,104,0.0,0.0,89,0.00,,,0.00,0,Wunderground v.1.15,2013-07-18 07:24:00,
2013-07-18 02:25:00,74.4,70.9,30.07,ESE,106,0.0,0.0,89,0.00,,,0.00,0,Wunderground v.1.15,2013-07-18 07:25:00,
2013-07-18 02:28:00,74.2,70.7,30.07,ESE,106,0.0,0.0,89,0.00,,,0.00,0,Wunderground v.1.15,2013-07-18 07:28:00,
2013-07-18 02:30:00,74.1,70.6,30.07,ESE,106,0.0,0.0,89,0.00,,,0.00,0,Wunderground v.1.15,2013-07-18 07:30:00,
2013-07-18 02:31:00,74.1,70.6,30.07,ESE,106,0.0,0.0,89,0.00,,,0.00,0,Wunderground v.1.15,2013-07-18 07:31:00,
2013-07-18 02:32:00,74.0,70.6,30.07,ESE,106,0.0,0.0,89,0.00,,,0.00,0,Wunderground v.1.15,2013-07-18 07:32:00,
2013-07-18 02:33:00,74.0,70.6,30.07,ESE,106,0.0,0.0,89,0.00,,,0.00,0,Wunderground v.1.15,2013-07-18 07:33:00,
2013-07-18 02:35:00,73.9,70.5,30.06,ESE,106,0.0,0.0,89,0.00,,,0.00,0,Wunderground v.1.15,2013-07-18 07:35:00,
2013-07-18 02:37:00,73.8,70.4,30.06,ESE,106,0.0,0.0,89,0.00,,,0.00,0,Wunderground v.1.15,2013-07-18 07:37:00,
2013-07-18 02:38:00,73.8,70.7,30.06,ESE,106,0.0,0.0,90,0.00,,,0.00,0,Wunderground v.1.15,2013-07-18 07:38:00,
2013-07-18 02:40:00,73.7,70.6,30.06,ESE,106,0.0,0.0,90,0.00,,,0.00,0,Wunderground v.1.15,2013-07-18 07:40:00,
2013-07-18 02:43:00,73.7,70.6,30.06,ESE,106,0.0,0.0,90,0.00,,,0.00,0,Wunderground v.1.15,2013-07-18 07:43:00,
2013-07-18 02:44:00,73.7,70.6,30.06,ESE,106,0.0,0.0,90,0.00,,,0.00,0,Wunderground v.1.15,2013-07-18 07:44:00,
2013-07-18 02:45:00,73.7,70.6,30.06,ESE,106,0.0,0.0,90,0.00,,,0.00,0,Wunderground v.1.15,2013-07-18 07:45:00,
2013-07-18 02:47:00,73.6,70.5,30.06,ESE,106,0.0,0.0,90,0.00,,,0.00,0,Wunderground v.1.15,2013-07-18 07:47:00,
2013-07-18 02:49:00,73.6,70.5,30.06,ESE,106,0.0,0.0,90,0.00,,,0.00,0,Wunderground v.1.15,2013-07-18 07:49:00,
2013-07-18 02:50:00,73.6,70.5,30.06,ESE,106,0.0,0.0,90,0.00,,,0.00,0,Wunderground v.1.15,2013-07-18 07:50:00,
2013-07-18 02:52:00,73.5,70.4,30.06,ESE,106,0.0,0.0,90,0.00,,,0.00,0,Wunderground v.1.15,2013-07-18 07:52:00,
2013-07-18 02:55:00,73.5,70.4,30.06,ESE,106,0.0,0.0,90,0.00,,,0.00,0,Wunderground v.1.15,2013-07-18 07:55:00,
2013-07-18 02:56:00,73.4,70.3,30.06,ESE,106,0.0,0.0,90,0.00,,,0.00,0,Wunderground v.1.15,2013-07-18 07:56:00,
2013-07-18 02:57:00,73.4,70.3,30.06,ESE,106,0.0,0.0,90,0.00,,,0.00,0,Wunderground v.1.15,2013-07-18 07:57:00,
2013-07-18 02:58:00,73.3,70.2,30.06,ESE,106,0.0,0.0,90,0.00,,,0.00,0,Wunderground v.1.15,2013-07-18 07:58:00,
2013-07-18 03:00:00,73.3,70.2,30.06,ESE,106,0.0,0.0,90,0.00,,,0.00,0,Wunderground v.1.15,2013-07-18 08:00:00,
2013-07-18 03:02:00,73.2,70.1,30.06,ESE,106,0.0,0.0,90,0.00,,,0.00,0,Wunderground v.1.15,2013-07-18 08:02:00,
2013-07-18 03:05:00,73.1,70.3,30.06,ESE,106,0.0,0.0,91,0.00,,,0.00,0,Wunderground v.1.15,2013-07-18 08:05:00,
2013-07-18 03:06:00,73.0,70.2,30.06,ESE,106,0.0,0.0,91,0.00,,,0.00,0,Wunderground v.1.15,2013-07-18 08:06:00,
2013-07-18 03:07:00,73.0,70.2,30.06,ESE,106,0.0,0.0,91,0.00,,,0.00,0,Wunderground v.1.15,2013-07-18 08:07:00,
2013-07-18 03:11:00,72.9,70.1,30.06,ESE,106,0.0,0.0,91,0.00,,,0.00,0,Wunderground v.1.15,2013-07-18 08:11:00,
2013-07-18 03:12:00,73.0,70.2,30.06,ESE,106,0.0,0.0,91,0.00,,,0.00,0,Wunderground v.1.15,2013-07-18 08:12:00,
2013-07-18 03:13:00,72.9,70.1,30.06,ESE,106,0.0,0.0,91,0.00,,,0.00,0,Wunderground v.1.15,2013-07-18 08:13:00,
2013-07-18 03:14:00,72.9,70.1,30.06,ESE,106,0.0,0.0,91,0.00,,,0.00,0,Wunderground v.1.15,2013-07-18 08:14:00,
2013-07-18 03:17:00,72.9,70.4,30.06,ESE,106,0.0,0.0,92,0.00,,,0.00,0,Wunderground v.1.15,2013-07-18 08:17:00,
2013-07-18 03:18:00,72.9,70.4,30.06,ESE,106,0.0,0.0,92,0.00,,,0.00,0,Wunderground v.1.15,2013-07-18 08:18:00,
2013-07-18 03:19:00,72.9,70.4,30.06,ESE,106,0.0,0.0,92,0.00,,,0.00,0,Wunderground v.1.15,2013-07-18 08:19:00,
2013-07-18 03:20:00,72.9,70.4,30.06,ESE,106,0.0,0.0,92,0.00,,,0.00,0,Wunderground v.1.15,2013-07-18 08:20:00,
2013-07-18 03:22:00,73.0,70.2,30.06,ESE,106,0.0,0.0,91,0.00,,,0.00,0,Wunderground v.1.15,2013-07-18 08:22:00,
2013-07-18 03:23:00,73.0,70.2,30.06,ESE,106,0.0,0.0,91,0.00,,,0.00,0,Wunderground v.1.15,2013-07-18 08:23:00,
2013-07-18 03:24:00,73.0,70.2,30.06,ESE,106,0.0,0.0,91,0.00,,,0.00,0,Wunderground v.1.15,2013-07-18 08:24:00,
2013-07-18 03:25:00,73.0,70.2,30.06,ESE,106,0.0,0.0,91,0.00,,,0.00,0,Wunderground v.1.15,2013-07-18 08:25:00,
2013-07-18 03:27:00,72.9,70.1,30.06,ESE,106,0.0,0.0,91,0.00,,,0.00,0,Wunderground v.1.15,2013-07-18 08:27:00,
2013-07-18 03:28:00,72.9,70.1,30.06,ESE,106,0.0,0.0,91,0.00,,,0.00,0,Wunderground v.1.15,2013-07-18 08:28:00,
2013-07-18 03:30:00,72.9,70.1,30.06,ESE,106,0.0,0.0,91,0.00,,,0.00,0,Wunderground v.1.15,2013-07-18 08:30:00,
2013-07-18 03:34:00,72.9,70.4,30.06,ESE,106,0.0,0.0,92,0.00,,,0.00,0,Wunderground v.1.15,2013-07-18 08:34:00,
2013-07-18 03:35:00,72.8,70.3,30.06,ESE,106,0.0,0.0,92,0.00,,,0.00,0,Wunderground v.1.15,2013-07-18 08:35:00,
2013-07-18 03:36:00,72.9,70.4,30.06,ESE,106,0.0,0.0,92,0.00,,,0.00,0,Wunderground v.1.15,2013-07-18 08:36:00,
2013-07-18 03:40:00,72.9,70.4,30.06,ESE,106,0.0,0.0,92,0.00,,,0.00,0,Wunderground v.1.15,2013-07-18 08:40:00,
2013-07-18 03:41:00,72.9,70.4,30.06,ESE,106,0.0,0.0,92,0.00,,,0.00,0,Wunderground v.1.15,2013-07-18 08:41:00,
2013-07-18 03:42:00,72.9,70.4,30.06,ESE,106,0.0,0.0,92,0.00,,,0.00,0,Wunderground v.1.15,2013-07-18 08:42:00,
2013-07-18 03:46:00,73.1,70.3,30.06,ESE,106,1.0,1.0,91,0.00,,,0.00,0,Wunderground v.1.15,2013-07-18 08:46:00,
2013-07-18 03:47:00,73.1,70.3,30.06,ESE,106,0.0,1.0,91,0.00,,,0.00,0,Wunderground v.1.15,2013-07-18 08:47:00,
2013-07-18 03:48:00,73.1,70.3,30.06,ESE,106,0.0,1.0,91,0.00,,,0.00,0,Wunderground v.1.15,2013-07-18 08:48:00,
2013-07-18 03:52:00,73.2,70.4,30.06,ESE,122,0.0,2.0,91,0.00,,,0.00,0,Wunderground v.1.15,2013-07-18 08:52:00,
2013-07-18 03:53:00,73.3,70.5,30.06,ESE,122,0.0,2.0,91,0.00,,,0.00,0,Wunderground v.1.15,2013-07-18 08:53:00,
2013-07-18 03:54:00,73.3,70.5,30.06,SE,128,0.0,3.0,91,0.00,,,0.00,0,Wunderground v.1.15,2013-07-18 08:54:00,
2013-07-18 03:56:00,73.3,70.5,30.06,SE,140,0.0,3.0,91,0.00,,,0.00,0,Wunderground v.1.15,2013-07-18 08:56:00,
2013-07-18 03:59:00,73.4,70.6,30.06,SSE,149,1.0,3.0,91,0.00,,,0.00,0,Wunderground v.1.15,2013-07-18 08:59:00,
2013-07-18 04:00:00,73.4,70.6,30.06,SSE,149,0.0,1.0,91,0.00,,,0.00,0,Wunderground v.1.15,2013-07-18 09:00:00,
2013-07-18 04:02:00,73.4,70.6,30.06,SSE,149,0.0,1.0,91,0.00,,,0.00,0,Wunderground v.1.15,2013-07-18 09:02:00,
2013-07-18 04:05:00,73.4,70.6,30.06,SSE,149,0.0,1.0,91,0.00,,,0.00,0,Wunderground v.1.15,2013-07-18 09:05:00,
2013-07-18 04:07:00,73.4,70.6,30.06,SSE,149,0.0,1.0,91,0.00,,,0.00,0,Wunderground v.1.15,2013-07-18 09:07:00,
2013-07-18 04:08:00,73.4,70.6,30.06,SSE,149,0.0,1.0,91,0.00,,,0.00,0,Wunderground v.1.15,2013-07-18 09:08:00,
2013-07-18 04:09:00,73.4,70.6,30.06,SSE,149,0.0,1.0,91,0.00,,,0.00,0,Wunderground v.1.15,2013-07-18 09:09:00,
2013-07-18 04:11:00,73.3,70.5,30.06,SSE,149,0.0,1.0,91,0.00,,,0.00,0,Wunderground v.1.15,2013-07-18 09:11:00,
2013-07-18 04:14:00,73.3,70.5,30.05,SSE,150,0.0,1.0,91,0.00,,,0.00,0,Wunderground v.1.15,2013-07-18 09:14:00,
2013-07-18 04:17:00,73.2,70.4,30.05,SSE,150,0.0,1.0,91,0.00,,,0.00,0,Wunderground v.1.15,2013-07-18 09:17:00,
2013-07-18 04:19:00,73.1,70.3,30.05,SSE,150,0.0,1.0,91,0.00,,,0.00,0,Wunderground v.1.15,2013-07-18 09:19:00,
2013-07-18 04:20:00,73.1,70.3,30.05,SSE,150,0.0,0.0,91,0.00,,,0.00,0,Wunderground v.1.15,2013-07-18 09:20:00,
2013-07-18 04:22:00,73.0,70.2,30.05,SSE,150,0.0,0.0,91,0.00,,,0.00,0,Wunderground v.1.15,2013-07-18 09:22:00,
2013-07-18 04:26:00,72.8,70.3,30.05,SSE,150,0.0,0.0,92,0.00,,,0.00,0,Wunderground v.1.15,2013-07-18 09:26:00,
2013-07-18 04:28:00,72.8,70.3,30.05,SSE,150,0.0,0.0,92,0.00,,,0.00,0,Wunderground v.1.15,2013-07-18 09:28:00,
2013-07-18 04:29:00,72.7,70.2,30.05,SSE,150,0.0,0.0,92,0.00,,,0.00,0,Wunderground v.1.15,2013-07-18 09:29:00,
2013-07-18 04:31:00,72.7,70.2,30.05,SSE,150,0.0,0.0,92,0.00,,,0.00,0,Wunderground v.1.15,2013-07-18 09:31:00,
2013-07-18 04:32:00,72.7,70.2,30.05,SSE,150,0.0,0.0,92,0.00,,,0.00,0,Wunderground v.1.15,2013-07-18 09:32:00,
2013-07-18 04:33:00,72.6,70.1,30.05,SSE,150,0.0,0.0,92,0.00,,,0.00,0,Wunderground v.1.15,2013-07-18 09:33:00,
2013-07-18 04:35:00,72.6,70.1,30.05,SSE,150,0.0,0.0,92,0.00,,,0.00,0,Wunderground v.1.15,2013-07-18 09:35:00,
2013-07-18 04:36:00,72.5,70.0,30.05,SSE,150,0.0,0.0,92,0.00,,,0.00,0,Wunderground v.1.15,2013-07-18 09:36:00,
2013-07-18 04:37:00,72.5,70.0,30.05,SSE,150,0.0,0.0,92,0.00,,,0.00,0,Wunderground v.1.15,2013-07-18 09:37:00,
2013-07-18 04:39:00,72.4,69.9,30.05,SSE,150,0.0,0.0,92,0.00,,,0.00,0,Wunderground v.1.15,2013-07-18 09:39:00,
2013-07-18 04:41:00,72.3,69.8,30.05,SSE,150,0.0,0.0,92,0.00,,,0.00,0,Wunderground v.1.15,2013-07-18 09:41:00,
2013-07-18 04:46:00,72.1,69.6,30.05,SSE,150,0.0,0.0,92,0.00,,,0.00,0,Wunderground v.1.15,2013-07-18 09:46:00,
2013-07-18 04:47:00,72.1,70.0,30.05,SSE,150,0.0,0.0,93,0.00,,,0.00,0,Wunderground v.1.15,2013-07-18 09:47:00,
2013-07-18 04:50:00,72.1,70.0,30.05,SSE,150,0.0,0.0,93,0.00,,,0.00,0,Wunderground v.1.15,2013-07-18 09:50:00,
2013-07-18 04:51:00,72.0,69.9,30.05,SSE,150,0.0,0.0,93,0.00,,,0.00,0,Wunderground v.1.15,2013-07-18 09:51:00,
2013-07-18 04:52:00,72.0,69.9,30.05,SSE,150,0.0,0.0,93,0.00,,,0.00,0,Wunderground v.1.15,2013-07-18 09:52:00,
2013-07-18 04:53:00,72.0,69.9,30.05,SSE,150,0.0,0.0,93,0.00,,,0.00,0,Wunderground v.1.15,2013-07-18 09:53:00,
2013-07-18 04:57:00,72.0,69.5,30.05,SSE,150,0.0,0.0,92,0.00,,,0.00,0,Wunderground v.1.15,2013-07-18 09:57:00,
2013-07-18 04:58:00,72.0,69.9,30.05,SSE,150,0.0,0.0,93,0.00,,,0.00,0,Wunderground v.1.15,2013-07-18 09:58:00,
2013-07-18 04:59:00,72.0,69.9,30.04,SSE,150,0.0,0.0,93,0.00,,,0.00,0,Wunderground v.1.15,2013-07-18 09:59:00,
2013-07-18 05:02:00,72.0,69.9,30.04,SSE,150,0.0,0.0,93,0.00,,,0.00,0,Wunderground v.1.15,2013-07-18 10:02:00,
2013-07-18 05:03:00,72.0,69.9,30.04,SSE,150,0.0,0.0,93,0.00,,,0.00,0,Wunderground v.1.15,2013-07-18 10:03:00,
2013-07-18 05:04:00,72.0,69.9,30.04,SSE,150,0.0,0.0,93,0.00,,,0.00,0,Wunderground v.1.15,2013-07-18 10:04:00,
2013-07-18 05:08:00,72.0,69.9,30.04,SSE,150,0.0,0.0,93,0.00,,,0.00,0,Wunderground v.1.15,2013-07-18 10:08:00,
2013-07-18 05:09:00,72.0,69.9,30.04,SSE,150,0.0,0.0,93,0.00,,,0.00,0,Wunderground v.1.15,2013-07-18 10:09:00,
2013-07-18 05:11:00,72.0,69.9,30.04,SSE,150,0.0,0.0,93,0.00,,,0.00,0,Wunderground v.1.15,2013-07-18 10:11:00,
2013-07-18 05:13:00,72.0,69.9,30.04,SSE,150,0.0,0.0,93,0.00,,,0.00,0,Wunderground v.1.15,2013-07-18 10:13:00,
2013-07-18 05:15:00,72.0,69.9,30.04,SSE,150,0.0,0.0,93,0.00,,,0.00,0,Wunderground v.1.15,2013-07-18 10:15:00,
2013-07-18 05:17:00,72.0,69.9,30.04,SSE,150,0.0,0.0,93,0.00,,,0.00,0,Wunderground v.1.15,2013-07-18 10:17:00,
2013-07-18 05:20:00,72.1,70.0,30.04,SSE,150,0.0,0.0,93,0.00,,,0.00,0,Wunderground v.1.15,2013-07-18 10:20:00,
2013-07-18 05:21:00,72.1,70.0,30.04,SSE,150,0.0,2.0,93,0.00,,,0.00,0,Wunderground v.1.15,2013-07-18 10:21:00,
2013-07-18 05:22:00,72.1,70.0,30.04,SSE,150,0.0,2.0,93,0.00,,,0.00,0,Wunderground v.1.15,2013-07-18 10:22:00,
2013-07-18 05:23:00,72.1,70.0,30.04,SSE,150,2.0,2.0,93,0.00,,,0.00,0,Wunderground v.1.15,2013-07-18 10:23:00,
2013-07-18 05:24:00,72.1,70.0,30.04,SSE,150,0.0,2.0,93,0.00,,,0.00,0,Wunderground v.1.15,2013-07-18 10:24:00,
2013-07-18 05:25:00,72.1,70.0,30.04,SSE,150,0.0,2.0,93,0.00,,,0.00,0,Wunderground v.1.15,2013-07-18 10:25:00,
2013-07-18 05:27:00,72.2,70.1,30.04,SSE,150,0.0,2.0,93,0.00,,,0.00,0,Wunderground v.1.15,2013-07-18 10:27:00,
2013-07-18 05:28:00,72.2,70.1,30.04,SSE,150,0.0,2.0,93,0.00,,,0.00,0,Wunderground v.1.15,2013-07-18 10:28:00,
2013-07-18 05:30:00,72.2,70.1,30.04,SSE,150,0.0,0.0,93,0.00,,,0.00,0,Wunderground v.1.15,2013-07-18 10:30:00,
2013-07-18 05:31:00,72.3,70.2,30.04,SSE,150,0.0,0.0,93,0.00,,,0.00,0,Wunderground v.1.15,2013-07-18 10:31:00,
2013-07-18 05:32:00,72.3,70.2,30.04,SSE,150,0.0,0.0,93,0.00,,,0.00,0,Wunderground v.1.15,2013-07-18 10:32:00,
2013-07-18 05:34:00,72.3,69.8,30.03,SSE,150,0.0,0.0,92,0.00,,,0.00,0,Wunderground v.1.15,2013-07-18 10:34:00,
2013-07-18 05:35:00,72.2,69.7,30.04,SSE,150,0.0,0.0,92,0.00,,,0.00,0,Wunderground v.1.15,2013-07-18 10:35:00,
2013-07-18 05:37:00,72.2,69.7,30.04,SSE,150,0.0,0.0,92,0.00,,,0.00,0,Wunderground v.1.15,2013-07-18 10:37:00,
2013-07-18 05:38:00,72.2,69.7,30.04,SSE,150,0.0,0.0,92,0.00,,,0.00,0,Wunderground v.1.15,2013-07-18 10:38:00,
2013-07-18 05:39:00,72.1,69.6,30.04,SSE,151,0.0,0.0,92,0.00,,,0.00,0,Wunderground v.1.15,2013-07-18 10:39:00,
2013-07-18 05:40:00,72.1,69.6,30.04,SSE,150,0.0,0.0,92,0.00,,,0.00,0,Wunderground v.1.15,2013-07-18 10:40:00,
2013-07-18 05:43:00,72.1,69.6,30.04,SSE,150,0.0,0.0,92,0.00,,,0.00,0,Wunderground v.1.15,2013-07-18 10:43:00,
2013-07-18 05:44:00,72.1,69.6,30.04,SSE,150,0.0,0.0,92,0.00,,,0.00,0,Wunderground v.1.15,2013-07-18 10:44:00,
2013-07-18 05:46:00,72.1,70.0,30.04,SSE,150,0.0,0.0,93,0.00,,,0.00,0,Wunderground v.1.15,2013-07-18 10:46:00,
2013-07-18 05:47:00,72.1,70.0,30.04,SSE,150,0.0,0.0,93,0.00,,,0.00,0,Wunderground v.1.15,2013-07-18 10:47:00,
2013-07-18 05:48:00,72.1,70.0,30.03,SSE,150,0.0,0.0,93,0.00,,,0.00,0,Wunderground v.1.15,2013-07-18 10:48:00,
2013-07-18 05:49:00,72.0,69.9,30.03,SSE,150,0.0,0.0,93,0.00,,,0.00,0,Wunderground v.1.15,2013-07-18 10:49:00,
2013-07-18 05:52:00,72.0,69.5,30.04,SSE,150,0.0,0.0,92,0.00,,,0.00,0,Wunderground v.1.15,2013-07-18 10:52:00,
2013-07-18 05:53:00,72.0,69.5,30.03,SSE,150,0.0,0.0,92,0.00,,,0.00,0,Wunderground v.1.15,2013-07-18 10:53:00,
2013-07-18 05:54:00,72.0,69.5,30.03,SSE,150,0.0,0.0,92,0.00,,,0.00,0,Wunderground v.1.15,2013-07-18 10:54:00,
2013-07-18 05:55:00,71.9,69.4,30.03,SSE,150,0.0,2.0,92,0.00,,,0.00,0,Wunderground v.1.15,2013-07-18 10:55:00,
2013-07-18 05:57:00,71.9,69.4,30.03,SSE,150,0.0,2.0,92,0.00,,,0.00,5,Wunderground v.1.15,2013-07-18 10:57:00,
2013-07-18 05:58:00,71.9,69.4,30.03,SSE,150,0.0,2.0,92,0.00,,,0.00,5,Wunderground v.1.15,2013-07-18 10:58:00,
2013-07-18 05:59:00,71.9,69.4,30.03,SSE,150,0.0,2.0,92,0.00,,,0.00,5,Wunderground v.1.15,2013-07-18 10:59:00,
2013-07-18 06:00:00,71.9,69.4,30.03,SSE,150,0.0,0.0,92,0.00,,,0.00,5,Wunderground v.1.15,2013-07-18 11:00:00,
2013-07-18 06:03:00,71.9,69.8,30.03,SSE,150,0.0,0.0,93,0.00,,,0.00,7,Wunderground v.1.15,2013-07-18 11:03:00,
2013-07-18 06:05:00,71.9,69.4,30.03,SSE,150,0.0,0.0,92,0.00,,,0.00,9,Wunderground v.1.15,2013-07-18 11:05:00,
2013-07-18 06:06:00,72.0,69.5,30.03,SSE,150,0.0,0.0,92,0.00,,,0.00,9,Wunderground v.1.15,2013-07-18 11:06:00,
2013-07-18 06:09:00,71.9,69.4,30.03,SSE,150,0.0,2.0,92,0.00,,,0.00,11,Wunderground v.1.15,2013-07-18 11:09:00,
2013-07-18 06:10:00,71.9,69.4,30.03,SSE,150,0.0,0.0,92,0.00,,,0.00,11,Wunderground v.1.15,2013-07-18 11:10:00,
2013-07-18 06:11:00,71.9,69.4,30.03,SSE,150,0.0,0.0,92,0.00,,,0.00,12,Wunderground v.1.15,2013-07-18 11:11:00,
2013-07-18 06:12:00,71.9,69.4,30.03,SSE,150,0.0,0.0,92,0.00,,,0.00,12,Wunderground v.1.15,2013-07-18 11:12:00,
2013-07-18 06:14:00,71.9,69.4,30.03,SSE,151,1.0,1.0,92,0.00,,,0.00,14,Wunderground v.1.15,2013-07-18 11:14:00,
2013-07-18 06:16:00,71.9,69.4,30.03,SSE,150,0.0,1.0,92,0.00,,,0.00,14,Wunderground v.1.15,2013-07-18 11:16:00,
2013-07-18 06:17:00,71.9,69.4,30.03,SSE,150,0.0,1.0,92,0.00,,,0.00,16,Wunderground v.1.15,2013-07-18 11:17:00,
2013-07-18 06:18:00,71.9,69.4,30.03,SSE,150,0.0,1.0,92,0.00,,,0.00,16,Wunderground v.1.15,2013-07-18 11:18:00,
2013-07-18 06:19:00,72.0,69.5,30.03,SSE,150,0.0,1.0,92,0.00,,,0.00,16,Wunderground v.1.15,2013-07-18 11:19:00,
2013-07-18 06:22:00,72.0,69.5,30.03,SSE,150,0.0,0.0,92,0.00,,,0.00,18,Wunderground v.1.15,2013-07-18 11:22:00,
2013-07-18 06:24:00,71.9,69.4,30.03,SSE,151,0.0,0.0,92,0.00,,,0.00,21,Wunderground v.1.15,2013-07-18 11:24:00,
2013-07-18 06:25:00,72.0,69.5,30.03,SSE,151,0.0,0.0,92,0.00,,,0.00,21,Wunderground v.1.15,2013-07-18 11:25:00,
2013-07-18 06:27:00,72.0,69.5,30.03,SSE,151,0.0,0.0,92,0.00,,,0.00,23,Wunderground v.1.15,2013-07-18 11:27:00,
2013-07-18 06:28:00,72.0,69.5,30.03,SSE,151,0.0,0.0,92,0.00,,,0.00,25,Wunderground v.1.15,2013-07-18 11:28:00,
2013-07-18 06:30:00,72.0,69.9,30.03,SSE,151,0.0,0.0,93,0.00,,,0.00,26,Wunderground v.1.15,2013-07-18 11:30:00,
2013-07-18 06:32:00,72.1,70.0,30.03,SSE,151,1.0,1.0,93,0.00,,,0.00,30,Wunderground v.1.15,2013-07-18 11:32:00,
2013-07-18 06:33:00,72.1,70.0,30.03,SSE,151,0.0,1.0,93,0.00,,,0.00,32,Wunderground v.1.15,2013-07-18 11:33:00,
2013-07-18 06:35:00,72.2,69.7,30.03,SSE,151,0.0,1.0,92,0.00,,,0.00,33,Wunderground v.1.15,2013-07-18 11:35:00,
2013-07-18 06:36:00,72.3,69.8,30.03,SSE,151,0.0,1.0,92,0.00,,,0.00,37,Wunderground v.1.15,2013-07-18 11:36:00,
2013-07-18 06:37:00,72.3,69.8,30.03,SSE,151,0.0,1.0,92,0.00,,,0.00,37,Wunderground v.1.15,2013-07-18 11:37:00,
2013-07-18 06:38:00,72.4,69.9,30.03,SSE,151,0.0,1.0,92,0.00,,,0.00,39,Wunderground v.1.15,2013-07-18 11:38:00,
2013-07-18 06:39:00,72.4,69.9,30.03,SSE,151,0.0,1.0,92,0.00,,,0.00,40,Wunderground v.1.15,2013-07-18 11:39:00,
2013-07-18 06:41:00,72.6,70.1,30.03,SSE,151,0.0,0.0,92,0.00,,,0.00,46,Wunderground v.1.15,2013-07-18 11:41:00,
2013-07-18 06:43:00,72.7,70.2,30.03,SSE,151,0.0,0.0,92,0.00,,,0.00,49,Wunderground v.1.15,2013-07-18 11:43:00,
2013-07-18 06:44:00,72.8,70.3,30.03,SSE,156,0.0,3.0,92,0.00,,,0.00,51,Wunderground v.1.15,2013-07-18 11:44:00,
2013-07-18 06:46:00,72.9,70.1,30.03,SSE,159,0.0,3.0,91,0.00,,,0.00,53,Wunderground v.1.15,2013-07-18 11:46:00,
2013-07-18 06:47:00,72.9,70.1,30.03,SSE,159,0.0,3.0,91,0.00,,,0.00,53,Wunderground v.1.15,2013-07-18 11:47:00,
2013-07-18 06:48:00,73.0,70.2,30.03,SSE,159,0.0,3.0,91,0.00,,,0.00,58,Wunderground v.1.15,2013-07-18 11:48:00,
2013-07-18 06:50:00,73.1,70.3,30.03,SSE,159,0.0,3.0,91,0.00,,,0.00,63,Wunderground v.1.15,2013-07-18 11:50:00,
2013-07-18 06:52:00,73.2,70.4,30.03,South,178,0.0,5.0,91,0.00,,,0.00,67,Wunderground v.1.15,2013-07-18 11:52:00,
2013-07-18 06:53:00,73.3,70.2,30.03,South,178,1.0,5.0,90,0.00,,,0.00,72,Wunderground v.1.15,2013-07-18 11:53:00,
2013-07-18 06:55:00,73.5,70.4,30.03,South,187,0.0,5.0,90,0.00,,,0.00,76,Wunderground v.1.15,2013-07-18 11:55:00,
2013-07-18 06:57:00,73.6,70.5,30.03,SSW,200,1.0,5.0,90,0.00,,,0.00,83,Wunderground v.1.15,2013-07-18 11:57:00,
2013-07-18 06:58:00,73.7,70.6,30.03,SSW,202,2.0,5.0,90,0.00,,,0.00,84,Wunderground v.1.15,2013-07-18 11:58:00,
2013-07-18 07:01:00,74.0,70.9,30.03,SSW,207,3.0,3.0,90,0.00,,,0.00,91,Wunderground v.1.15,2013-07-18 12:01:00,
2013-07-18 07:02:00,74.0,70.9,30.03,SSW,209,2.0,3.0,90,0.00,,,0.00,95,Wunderground v.1.15,2013-07-18 12:02:00,
2013-07-18 07:04:00,74.3,70.8,30.03,SW,216,2.0,4.0,89,0.00,,,0.00,102,Wunderground v.1.15,2013-07-18 12:04:00,
2013-07-18 07:05:00,74.2,70.7,30.03,SW,217,4.0,4.0,89,0.00,,,0.00,102,Wunderground v.1.15,2013-07-18 12:05:00,
2013-07-18 07:06:00,74.4,70.9,30.03,SSW,210,5.0,5.0,89,0.00,,,0.00,107,Wunderground v.1.15,2013-07-18 12:06:00,
2013-07-18 07:07:00,74.5,71.0,30.03,SSW,209,3.0,5.0,89,0.00,,,0.00,109,Wunderground v.1.15,2013-07-18 12:07:00,
2013-07-18 07:08:00,74.6,71.1,30.03,SW,220,4.0,5.0,89,0.00,,,0.00,113,Wunderground v.1.15,2013-07-18 12:08:00,
2013-07-18 07:10:00,74.7,70.9,30.03,SSW,213,4.0,5.0,88,0.00,,,0.00,118,Wunderground v.1.15,2013-07-18 12:10:00,
2013-07-18 07:11:00,74.8,71.0,30.03,SSW,209,3.0,4.0,88,0.00,,,0.00,120,Wunderground v.1.15,2013-07-18 12:11:00,
2013-07-18 07:12:00,74.9,71.1,30.03,SW,220,5.0,5.0,88,0.00,,,0.00,125,Wunderground v.1.15,2013-07-18 12:12:00,
2013-07-18 07:14:00,75.0,71.2,30.03,SSW,212,4.0,5.0,88,0.00,,,0.00,142,Wunderground v.1.15,2013-07-18 12:14:00,
2013-07-18 07:16:00,75.2,71.4,30.02,SW,227,2.0,5.0,88,0.00,,,0.00,139,Wunderground v.1.15,2013-07-18 12:16:00,
2013-07-18 07:17:00,75.3,71.5,30.02,SW,227,0.0,5.0,88,0.00,,,0.00,142,Wunderground v.1.15,2013-07-18 12:17:00,
2013-07-18 07:18:00,75.3,71.5,30.02,SW,227,1.0,5.0,88,0.00,,,0.00,144,Wunderground v.1.15,2013-07-18 12:18:00,
2013-07-18 07:20:00,75.5,71.4,30.02,SW,217,2.0,2.0,87,0.00,,,0.00,151,Wunderground v.1.15,2013-07-18 12:20:00,
2013-07-18 07:22:00,75.6,71.5,30.02,SW,234,6.0,6.0,87,0.00,,,0.00,156,Wunderground v.1.15,2013-07-18 12:22:00,
2013-07-18 07:23:00,75.7,71.2,30.02,SSW,213,5.0,6.0,86,0.00,,,0.00,160,Wunderground v.1.15,2013-07-18 12:23:00,
2013-07-18 07:24:00,75.8,71.3,30.02,SW,214,2.0,6.0,86,0.00,,,0.00,163,Wunderground v.1.15,2013-07-18 12:24:00,
2013-07-18 07:25:00,75.8,71.3,30.03,SW,218,5.0,6.0,86,0.00,,,0.00,165,Wunderground v.1.15,2013-07-18 12:25:00,
2013-07-18 07:27:00,76.0,71.5,30.02,SW,223,2.0,6.0,86,0.00,,,0.00,171,Wunderground v.1.15,2013-07-18 12:27:00,
2013-07-18 07:28:00,76.2,71.7,30.02,SW,231,5.0,6.0,86,0.00,,,0.00,176,Wunderground v.1.15,2013-07-18 12:28:00,
2013-07-18 07:29:00,76.2,71.4,30.02,SW,219,4.0,6.0,85,0.00,,,0.00,179,Wunderground v.1.15,2013-07-18 12:29:00,
2013-07-18 07:31:00,76.4,71.6,30.02,SW,228,4.0,4.0,85,0.00,,,0.00,186,Wunderground v.1.15,2013-07-18 12:31:00,
2013-07-18 07:32:00,76.5,71.7,30.02,SW,229,3.0,4.0,85,0.00,,,0.00,186,Wunderground v.1.15,2013-07-18 12:32:00,
2013-07-18 07:35:00,76.7,71.8,30.02,SW,220,4.0,5.0,85,0.00,,,0.00,195,Wunderground v.1.15,2013-07-18 12:35:00,
2013-07-18 07:36:00,76.9,71.7,30.02,SW,230,5.0,6.0,84,0.00,,,0.00,197,Wunderground v.1.15,2013-07-18 12:36:00,
2013-07-18 07:38:00,76.9,71.7,30.02,SW,219,3.0,6.0,84,0.00,,,0.00,202,Wunderground v.1.15,2013-07-18 12:38:00,
2013-07-18 07:39:00,77.0,71.8,30.02,SW,225,4.0,6.0,84,0.00,,,0.00,204,Wunderground v.1.15,2013-07-18 12:39:00,
2013-07-18 07:40:00,77.1,71.9,30.02,SW,222,1.0,3.0,84,0.00,,,0.00,209,Wunderground v.1.15,2013-07-18 12:40:00,
2013-07-18 07:42:00,77.3,72.1,30.02,SW,224,5.0,5.0,84,0.00,,,0.00,214,Wunderground v.1.15,2013-07-18 12:42:00,
2013-07-18 07:44:00,77.5,71.9,30.02,SW,229,1.0,7.0,83,0.00,,,0.00,223,Wunderground v.1.15,2013-07-18 12:44:00,
2013-07-18 07:45:00,77.5,71.9,30.02,SW,225,4.0,7.0,83,0.00,,,0.00,223,Wunderground v.1.15,2013-07-18 12:45:00,
2013-07-18 07:46:00,77.6,72.0,30.02,SW,225,7.0,7.0,83,0.00,,,0.00,225,Wunderground v.1.15,2013-07-18 12:46:00,
2013-07-18 07:50:00,78.0,72.1,30.02,SSW,211,1.0,3.0,82,0.00,,,0.00,237,Wunderground v.1.15,2013-07-18 12:50:00,
2013-07-18 07:51:00,78.2,72.3,30.02,SW,224,5.0,5.0,82,0.00,,,0.00,241,Wunderground v.1.15,2013-07-18 12:51:00,
2013-07-18 07:52:00,78.2,72.3,30.02,SW,224,3.0,5.0,82,0.00,,,0.00,241,Wunderground v.1.15,2013-07-18 12:52:00,
2013-07-18 07:54:00,78.4,72.4,30.02,SW,223,4.0,5.0,82,0.00,,,0.00,246,Wunderground v.1.15,2013-07-18 12:54:00,
2013-07-18 07:55:00,78.5,72.2,30.02,SW,225,6.0,6.0,81,0.00,,,0.00,255,Wunderground v.1.15,2013-07-18 12:55:00,
2013-07-18 07:57:00,78.6,71.9,30.02,SW,221,3.0,6.0,80,0.00,,,0.00,257,Wunderground v.1.15,2013-07-18 12:57:00,
2013-07-18 07:58:00,78.7,72.4,30.02,SW,223,7.0,7.0,81,0.00,,,0.00,262,Wunderground v.1.15,2013-07-18 12:58:00,
2013-07-18 07:59:00,78.8,72.1,30.02,SW,218,4.0,7.0,80,0.00,,,0.00,264,Wunderground v.1.15,2013-07-18 12:59:00,
2013-07-18 08:01:00,78.9,72.2,30.02,SSW,206,5.0,5.0,80,0.00,,,0.00,267,Wunderground v.1.15,2013-07-18 13:01:00,
2013-07-18 08:02:00,79.0,72.3,30.02,SSW,208,5.0,6.0,80,0.00,,,0.00,274,Wunderground v.1.15,2013-07-18 13:02:00,
2013-07-18 08:03:00,79.0,71.9,30.02,SW,215,4.0,7.0,79,0.00,,,0.00,276,Wunderground v.1.15,2013-07-18 13:03:00,
2013-07-18 08:05:00,79.1,72.0,30.02,SSW,199,4.0,7.0,79,0.00,,,0.00,281,Wunderground v.1.15,2013-07-18 13:05:00,
2013-07-18 08:07:00,79.3,72.6,30.02,South,186,2.0,7.0,80,0.00,,,0.00,288,Wunderground v.1.15,2013-07-18 13:07:00,
2013-07-18 08:08:00,79.4,72.7,30.02,SSW,207,3.0,7.0,80,0.00,,,0.00,290,Wunderground v.1.15,2013-07-18 13:08:00,
2013-07-18 08:09:00,79.4,72.7,30.02,SSW,207,2.0,7.0,80,0.00,,,0.00,290,Wunderground v.1.15,2013-07-18 13:09:00,
2013-07-18 08:10:00,79.5,72.8,30.02,SSW,210,2.0,3.0,80,0.00,,,0.00,295,Wunderground v.1.15,2013-07-18 13:10:00,
2013-07-18 08:12:00,79.7,72.2,30.02,SSW,204,3.0,5.0,78,0.00,,,0.00,301,Wunderground v.1.15,2013-07-18 13:12:00,
2013-07-18 08:14:00,79.7,72.2,30.02,SW,219,7.0,7.0,78,0.00,,,0.00,304,Wunderground v.1.15,2013-07-18 13:14:00,
2013-07-18 08:15:00,79.7,72.2,30.02,SSW,206,4.0,7.0,78,0.00,,,0.00,309,Wunderground v.1.15,2013-07-18 13:15:00,
2013-07-18 08:19:00,79.9,72.4,30.02,SSW,200,3.0,7.0,78,0.00,,,0.00,325,Wunderground v.1.15,2013-07-18 13:19:00,
2013-07-18 08:20:00,79.9,72.4,30.02,SSW,205,2.0,4.0,78,0.00,,,0.00,325,Wunderground v.1.15,2013-07-18 13:20:00,
2013-07-18 08:21:00,80.1,72.6,30.02,SW,227,4.0,5.0,78,0.00,,,0.00,330,Wunderground v.1.15,2013-07-18 13:21:00,
2013-07-18 08:22:00,80.2,72.7,30.02,SW,231,2.0,5.0,78,0.00,,,0.00,332,Wunderground v.1.15,2013-07-18 13:22:00,
2013-07-18 08:25:00,80.4,72.5,30.02,SSW,204,5.0,5.0,77,0.00,,,0.00,343,Wunderground v.1.15,2013-07-18 13:25:00,
2013-07-18 08:26:00,80.4,72.5,30.02,SSW,196,3.0,6.0,77,0.00,,,0.00,346,Wunderground v.1.15,2013-07-18 13:26:00,
2013-07-18 08:27:00,80.4,72.5,30.02,SSW,213,7.0,7.0,77,0.00,,,0.00,348,Wunderground v.1.15,2013-07-18 13:27:00,
2013-07-18 08:31:00,80.6,72.3,30.02,SW,231,7.0,7.0,76,0.00,,,0.00,360,Wunderground v.1.15,2013-07-18 13:31:00,
2013-07-18 08:33:00,80.6,72.3,30.02,SW,229,3.0,7.0,76,0.00,,,0.00,362,Wunderground v.1.15,2013-07-18 13:33:00,
2013-07-18 08:35:00,80.7,72.4,30.02,SSW,213,5.0,7.0,76,0.00,,,0.00,371,Wunderground v.1.15,2013-07-18 13:35:00,
2013-07-18 08:38:00,80.9,72.6,30.02,South,186,7.0,7.0,76,0.00,,,0.00,378,Wunderground v.1.15,2013-07-18 13:38:00,
2013-07-18 08:39:00,81.0,72.7,30.02,SW,218,6.0,7.0,76,0.00,,,0.00,378,Wunderground v.1.15,2013-07-18 13:39:00,
2013-07-18 08:40:00,81.0,72.3,30.02,SW,222,5.0,5.0,75,0.00,,,0.00,387,Wunderground v.1.15,2013-07-18 13:40:00,
2013-07-18 08:42:00,81.1,72.4,30.02,SW,219,4.0,6.0,75,0.00,,,0.00,392,Wunderground v.1.15,2013-07-18 13:42:00,
2013-07-18 08:43:00,81.3,72.6,30.02,SW,215,3.0,8.0,75,0.00,,,0.00,396,Wunderground v.1.15,2013-07-18 13:43:00,
2013-07-18 08:44:00,81.3,72.6,30.02,SW,214,5.0,8.0,75,0.00,,,0.00,396,Wunderground v.1.15,2013-07-18 13:44:00,
2013-07-18 08:46:00,81.4,73.1,30.02,SW,215,5.0,8.0,76,0.00,,,0.00,401,Wunderground v.1.15,2013-07-18 13:46:00,
2013-07-18 08:49:00,81.8,72.7,30.01,SSW,200,4.0,8.0,74,0.00,,,0.00,415,Wunderground v.1.15,2013-07-18 13:49:00,
2013-07-18 08:50:00,81.9,72.8,30.02,SSW,211,5.0,5.0,74,0.00,,,0.00,418,Wunderground v.1.15,2013-07-18 13:50:00,
2013-07-18 08:51:00,81.9,72.4,30.02,SSW,208,6.0,7.0,73,0.00,,,0.00,418,Wunderground v.1.15,2013-07-18 13:51:00,
2013-07-18 08:52:00,82.0,72.5,30.02,SW,234,6.0,8.0,73,0.00,,,0.00,422,Wunderground v.1.15,2013-07-18 13:52:00,
2013-07-18 08:55:00,82.2,72.7,30.01,SW,220,4.0,8.0,73,0.00,,,0.00,432,Wunderground v.1.15,2013-07-18 13:55:00,
2013-07-18 08:56:00,82.2,72.7,30.01,SSW,207,5.0,8.0,73,0.00,,,0.00,434,Wunderground v.1.15,2013-07-18 13:56:00,
2013-07-18 08:57:00,82.3,72.8,30.01,SSW,213,7.0,8.0,73,0.00,,,0.00,434,Wunderground v.1.15,2013-07-18 13:57:00,
2013-07-18 09:01:00,82.8,72.8,30.01,SSW,208,7.0,7.0,72,0.00,,,0.00,450,Wunderground v.1.15,2013-07-18 14:01:00,
2013-07-18 09:02:00,82.8,72.8,30.01,SW,224,4.0,7.0,72,0.00,,,0.00,450,Wunderground v.1.15,2013-07-18 14:02:00,
2013-07-18 09:04:00,82.8,72.8,30.01,SSW,206,5.0,7.0,72,0.00,,,0.00,455,Wunderground v.1.15,2013-07-18 14:04:00,
2013-07-18 09:06:00,83.0,72.6,30.01,SSW,211,5.0,8.0,71,0.00,,,0.00,466,Wunderground v.1.15,2013-07-18 14:06:00,
2013-07-18 09:07:00,83.0,72.6,30.01,SW,235,7.0,8.0,71,0.00,,,0.00,468,Wunderground v.1.15,2013-07-18 14:07:00,
2013-07-18 09:08:00,83.1,73.1,30.01,SW,229,9.0,9.0,72,0.00,,,0.00,469,Wunderground v.1.15,2013-07-18 14:08:00,
2013-07-18 09:09:00,83.2,73.2,30.01,SSW,194,4.0,9.0,72,0.00,,,0.00,473,Wunderground v.1.15,2013-07-18 14:09:00,
2013-07-18 09:12:00,83.2,73.2,30.01,SSW,211,7.0,7.0,72,0.00,,,0.00,480,Wunderground v.1.15,2013-07-18 14:12:00,
2013-07-18 09:14:00,83.3,72.9,30.01,SW,220,4.0,8.0,71,0.00,,,0.00,487,Wunderground v.1.15,2013-07-18 14:14:00,
2013-07-18 09:15:00,83.4,73.4,30.01,SSW,212,4.0,8.0,72,0.00,,,0.00,489,Wunderground v.1.15,2013-07-18 14:15:00,
2013-07-18 09:18:00,83.5,73.1,30.01,SW,228,4.0,8.0,71,0.00,,,0.00,499,Wunderground v.1.15,2013-07-18 14:18:00,
2013-07-18 09:20:00,83.6,73.2,30.01,SW,222,6.0,8.0,71,0.00,,,0.00,501,Wunderground v.1.15,2013-07-18 14:20:00,
2013-07-18 09:23:00,83.9,73.5,30.01,SW,233,3.0,7.0,71,0.00,,,0.00,515,Wunderground v.1.15,2013-07-18 14:23:00,
2013-07-18 09:24:00,84.0,73.6,30.01,SW,230,5.0,8.0,71,0.00,,,0.00,517,Wunderground v.1.15,2013-07-18 14:24:00,
2013-07-18 09:26:00,84.1,73.3,30.01,SSW,209,4.0,8.0,70,0.00,,,0.00,522,Wunderground v.1.15,2013-07-18 14:26:00,
2013-07-18 09:27:00,84.3,73.0,30.01,SW,234,8.0,8.0,69,0.00,,,0.00,526,Wunderground v.1.15,2013-07-18 14:27:00,
2013-07-18 09:29:00,84.4,73.1,30.01,WSW,242,10.0,10.0,69,0.00,,,0.00,531,Wunderground v.1.15,2013-07-18 14:29:00,
2013-07-18 09:30:00,84.4,73.1,30.01,WSW,237,6.0,6.0,69,0.00,,,0.00,533,Wunderground v.1.15,2013-07-18 14:30:00,
2013-07-18 09:31:00,84.4,72.7,30.01,WSW,237,6.0,8.0,68,0.00,,,0.00,536,Wunderground v.1.15,2013-07-18 14:31:00,
2013-07-18 09:32:00,84.4,72.7,30.01,WSW,248,5.0,9.0,68,0.00,,,0.00,538,Wunderground v.1.15,2013-07-18 14:32:00,
2013-07-18 09:34:00,84.5,73.2,30.01,SW,227,6.0,9.0,69,0.00,,,0.00,543,Wunderground v.1.15,2013-07-18 14:34:00,
2013-07-18 09:36:00,84.7,73.4,30.01,SW,230,5.0,9.0,69,0.00,,,0.00,550,Wunderground v.1.15,2013-07-18 14:36:00,
2013-07-18 09:37:00,84.7,73.8,30.01,SW,220,4.0,9.0,70,0.00,,,0.00,554,Wunderground v.1.15,2013-07-18 14:37:00,
2013-07-18 09:39:00,85.0,73.3,30.01,WSW,252,12.0,12.0,68,0.00,,,0.00,557,Wunderground v.1.15,2013-07-18 14:39:00,
2013-07-18 09:40:00,85.1,73.3,30.01,WSW,245,10.0,10.0,68,0.00,,,0.00,559,Wunderground v.1.15,2013-07-18 14:40:00,
2013-07-18 09:42:00,85.3,73.1,30.01,SW,227,8.0,10.0,67,0.00,,,0.00,566,Wunderground v.1.15,2013-07-18 14:42:00,
2013-07-18 09:43:00,85.3,73.1,30.01,SW,229,6.0,10.0,67,0.00,,,0.00,566,Wunderground v.1.15,2013-07-18 14:43:00,
2013-07-18 09:45:00,85.2,73.0,30.01,SW,225,7.0,10.0,67,0.00,,,0.00,571,Wunderground v.1.15,2013-07-18 14:45:00,
2013-07-18 09:46:00,85.2,73.0,30.01,WSW,241,4.0,10.0,67,0.00,,,0.00,573,Wunderground v.1.15,2013-07-18 14:46:00,
2013-07-18 09:48:00,85.2,73.0,30.01,SW,227,3.0,10.0,67,0.00,,,0.00,578,Wunderground v.1.15,2013-07-18 14:48:00,
2013-07-18 09:49:00,85.3,73.5,30.01,SW,220,5.0,10.0,68,0.00,,,0.00,582,Wunderground v.1.15,2013-07-18 14:49:00,
2013-07-18 09:50:00,85.4,73.2,30.01,WSW,239,5.0,7.0,67,0.00,,,0.00,587,Wunderground v.1.15,2013-07-18 14:50:00,
2013-07-18 09:52:00,85.4,73.6,30.01,WSW,248,4.0,7.0,68,0.00,,,0.00,591,Wunderground v.1.15,2013-07-18 14:52:00,
2013-07-18 09:53:00,85.5,73.7,30.01,WSW,254,7.0,8.0,68,0.00,,,0.00,592,Wunderground v.1.15,2013-07-18 14:53:00,
2013-07-18 09:54:00,85.6,73.8,30.01,WSW,242,7.0,8.0,68,0.00,,,0.00,596,Wunderground v.1.15,2013-07-18 14:54:00,
2013-07-18 09:58:00,85.8,73.6,30.01,SW,235,7.0,9.0,67,0.00,,,0.00,606,Wunderground v.1.15,2013-07-18 14:58:00,
2013-07-18 09:59:00,85.8,73.1,30.01,WSW,239,7.0,9.0,66,0.00,,,0.00,608,Wunderground v.1.15,2013-07-18 14:59:00,
2013-07-18 10:04:00,86.1,73.9,30.00,SSW,212,4.0,11.0,67,0.00,,,0.00,624,Wunderground v.1.15,2013-07-18 15:04:00,
2013-07-18 10:05:00,86.1,73.9,30.00,SW,214,7.0,11.0,67,0.00,,,0.00,624,Wunderground v.1.15,2013-07-18 15:05:00,
2013-07-18 10:10:00,86.3,73.6,30.01,WSW,246,8.0,11.0,66,0.00,,,0.00,636,Wunderground v.1.15,2013-07-18 15:10:00,
2013-07-18 10:11:00,86.2,73.5,30.00,SSW,194,4.0,6.0,66,0.00,,,0.00,638,Wunderground v.1.15,2013-07-18 15:11:00,
2013-07-18 10:13:00,86.3,73.6,30.01,WSW,243,10.0,10.0,66,0.00,,,0.00,642,Wunderground v.1.15,2013-07-18 15:13:00,
2013-07-18 10:15:00,86.3,72.7,30.01,WSW,244,3.0,11.0,64,0.00,,,0.00,650,Wunderground v.1.15,2013-07-18 15:15:00,
2013-07-18 10:16:00,86.5,73.8,30.01,WSW,258,4.0,11.0,66,0.00,,,0.00,650,Wunderground v.1.15,2013-07-18 15:16:00,
2013-07-18 10:17:00,86.8,75.0,30.00,WSW,258,6.0,11.0,68,0.00,,,0.00,656,Wunderground v.1.15,2013-07-18 15:17:00,
2013-07-18 10:20:00,87.1,74.8,30.01,SW,230,5.0,11.0,67,0.00,,,0.00,659,Wunderground v.1.15,2013-07-18 15:20:00,
2013-07-18 10:21:00,87.2,73.5,30.00,SSW,204,6.0,6.0,64,0.00,,,0.00,664,Wunderground v.1.15,2013-07-18 15:21:00,
2013-07-18 10:22:00,87.2,73.5,30.00,WSW,237,6.0,8.0,64,0.00,,,0.00,666,Wunderground v.1.15,2013-07-18 15:22:00,
2013-07-18 10:23:00,87.2,74.5,30.00,West,259,8.0,10.0,66,0.00,,,0.00,670,Wunderground v.1.15,2013-07-18 15:23:00,
2013-07-18 10:25:00,87.3,73.6,30.00,WSW,255,8.0,10.0,64,0.00,,,0.00,673,Wunderground v.1.15,2013-07-18 15:25:00,
2013-07-18 10:27:00,87.4,73.7,30.00,SW,226,4.0,10.0,64,0.00,,,0.00,679,Wunderground v.1.15,2013-07-18 15:27:00,
2013-07-18 10:28:00,87.4,73.7,30.00,WSW,240,6.0,10.0,64,0.00,,,0.00,684,Wunderground v.1.15,2013-07-18 15:28:00,
2013-07-18 10:29:00,87.3,73.2,30.00,WSW,246,6.0,10.0,63,0.00,,,0.00,684,Wunderground v.1.15,2013-07-18 15:29:00,
2013-07-18 10:31:00,87.2,73.5,30.00,WSW,241,6.0,9.0,64,0.00,,,0.00,689,Wunderground v.1.15,2013-07-18 15:31:00,
2013-07-18 10:32:00,87.1,73.4,30.00,SW,229,7.0,9.0,64,0.00,,,0.00,689,Wunderground v.1.15,2013-07-18 15:32:00,
2013-07-18 10:34:00,87.0,72.9,30.00,WSW,238,6.0,9.0,63,0.00,,,0.00,696,Wunderground v.1.15,2013-07-18 15:34:00,
2013-07-18 10:35:00,87.3,74.1,30.00,WSW,249,7.0,9.0,65,0.00,,,0.00,700,Wunderground v.1.15,2013-07-18 15:35:00,
2013-07-18 10:38:00,87.5,73.8,30.00,WSW,238,4.0,11.0,64,0.00,,,0.00,707,Wunderground v.1.15,2013-07-18 15:38:00,
2013-07-18 10:40:00,87.6,73.4,30.00,WSW,245,7.0,7.0,63,0.00,,,0.00,708,Wunderground v.1.15,2013-07-18 15:40:00,
2013-07-18 10:41:00,87.6,73.4,30.00,WSW,254,8.0,9.0,63,0.00,,,0.00,710,Wunderground v.1.15,2013-07-18 15:41:00,
2013-07-18 10:42:00,87.8,74.1,30.00,SW,233,7.0,10.0,64,0.00,,,0.00,712,Wunderground v.1.15,2013-07-18 15:42:00,
2013-07-18 10:43:00,87.7,73.1,30.00,SSW,212,7.0,10.0,62,0.00,,,0.00,717,Wunderground v.1.15,2013-07-18 15:43:00,
2013-07-18 10:46:00,87.7,74.5,30.00,WSW,246,4.0,10.0,65,0.00,,,0.00,722,Wunderground v.1.15,2013-07-18 15:46:00,
2013-07-18 10:47:00,87.9,74.7,30.00,WSW,238,8.0,10.0,65,0.00,,,0.00,724,Wunderground v.1.15,2013-07-18 15:47:00,
2013-07-18 10:48:00,87.9,73.3,30.00,SW,234,3.0,10.0,62,0.00,,,0.00,722,Wunderground v.1.15,2013-07-18 15:48:00,
2013-07-18 10:49:00,87.9,73.3,30.00,WSW,242,4.0,10.0,62,0.00,,,0.00,724,Wunderground v.1.15,2013-07-18 15:49:00,
2013-07-18 10:52:00,88.0,74.3,30.00,SW,230,6.0,7.0,64,0.00,,,0.00,737,Wunderground v.1.15,2013-07-18 15:52:00,
2013-07-18 10:53:00,88.0,74.3,30.00,SSW,207,6.0,7.0,64,0.00,,,0.00,737,Wunderground v.1.15,2013-07-18 15:53:00,
2013-07-18 10:54:00,88.0,74.3,30.00,SW,233,5.0,8.0,64,0.00,,,0.00,740,Wunderground v.1.15,2013-07-18 15:54:00,
2013-07-18 10:55:00,88.0,73.8,30.00,SW,225,4.0,8.0,63,0.00,,,0.00,740,Wunderground v.1.15,2013-07-18 15:55:00,
2013-07-18 10:57:00,88.0,73.3,29.99,WSW,238,6.0,8.0,62,0.00,,,0.00,744,Wunderground v.1.15,2013-07-18 15:57:00,
2013-07-18 10:58:00,88.0,73.3,29.99,SW,236,6.0,8.0,62,0.00,,,0.00,749,Wunderground v.1.15,2013-07-18 15:58:00,
2013-07-18 11:00:00,88.2,73.0,29.99,WSW,240,6.0,6.0,61,0.00,,,0.00,751,Wunderground v.1.15,2013-07-18 16:00:00,
2013-07-18 11:02:00,88.3,73.1,29.99,WSW,241,6.0,9.0,61,0.00,,,0.00,758,Wunderground v.1.15,2013-07-18 16:02:00,
2013-07-18 11:03:00,88.2,73.5,29.99,WSW,255,7.0,9.0,62,0.00,,,0.00,759,Wunderground v.1.15,2013-07-18 16:03:00,
2013-07-18 11:05:00,88.5,73.3,29.99,WSW,245,5.0,10.0,61,0.00,,,0.00,759,Wunderground v.1.15,2013-07-18 16:05:00,
2013-07-18 11:08:00,88.8,73.6,29.99,SW,228,4.0,10.0,61,0.00,,,0.00,770,Wunderground v.1.15,2013-07-18 16:08:00,
2013-07-18 11:09:00,88.8,73.6,29.99,WSW,254,5.0,10.0,61,0.00,,,0.00,770,Wunderground v.1.15,2013-07-18 16:09:00,
2013-07-18 11:10:00,88.9,74.2,29.99,WSW,250,7.0,7.0,62,0.00,,,0.00,772,Wunderground v.1.15,2013-07-18 16:10:00,
2013-07-18 11:12:00,88.8,73.6,29.99,SW,225,9.0,9.0,61,0.00,,,0.00,772,Wunderground v.1.15,2013-07-18 16:12:00,
2013-07-18 11:13:00,88.7,73.0,29.99,SW,221,7.0,9.0,60,0.00,,,0.00,780,Wunderground v.1.15,2013-07-18 16:13:00,
2013-07-18 11:15:00,88.8,73.1,29.99,SW,218,5.0,9.0,60,0.00,,,0.00,784,Wunderground v.1.15,2013-07-18 16:15:00,
2013-07-18 11:16:00,88.8,73.6,29.98,SW,225,5.0,9.0,61,0.00,,,0.00,784,Wunderground v.1.15,2013-07-18 16:16:00,
2013-07-18 11:18:00,88.8,73.6,29.99,West,261,7.0,11.0,61,0.00,,,0.00,788,Wunderground v.1.15,2013-07-18 16:18:00,
2013-07-18 11:20:00,88.9,73.7,29.99,SSW,209,11.0,12.0,61,0.00,,,0.00,795,Wunderground v.1.15,2013-07-18 16:20:00,
2013-07-18 11:21:00,89.0,72.8,29.99,SW,229,7.0,12.0,59,0.00,,,0.00,800,Wunderground v.1.15,2013-07-18 16:21:00,
2013-07-18 11:22:00,89.0,72.3,29.99,SW,230,6.0,12.0,58,0.00,,,0.00,803,Wunderground v.1.15,2013-07-18 16:22:00,
2013-07-18 11:23:00,89.0,72.3,29.99,SW,232,7.0,12.0,58,0.00,,,0.00,807,Wunderground v.1.15,2013-07-18 16:23:00,
2013-07-18 11:25:00,88.9,72.2,29.99,SW,220,8.0,12.0,58,0.00,,,0.00,807,Wunderground v.1.15,2013-07-18 16:25:00,
2013-07-18 11:27:00,89.0,72.3,29.99,SW,236,8.0,12.0,58,0.00,,,0.00,810,Wunderground v.1.15,2013-07-18 16:27:00,
2013-07-18 11:29:00,89.1,71.9,29.99,SW,227,11.0,14.0,57,0.00,,,0.00,810,Wunderground v.1.15,2013-07-18 16:29:00,
2013-07-18 11:30:00,89.0,71.8,29.99,SW,236,8.0,8.0,57,0.00,,,0.00,821,Wunderground v.1.15,2013-07-18 16:30:00,
2013-07-18 11:31:00,89.1,72.9,29.99,WSW,248,12.0,12.0,59,0.00,,,0.00,837,Wunderground v.1.15,2013-07-18 16:31:00,
2013-07-18 11:32:00,89.2,72.0,29.98,WSW,248,10.0,12.0,57,0.00,,,0.00,837,Wunderground v.1.15,2013-07-18 16:32:00,
2013-07-18 11:33:00,89.3,72.1,29.98,SW,227,9.0,12.0,57,0.00,,,0.00,837,Wunderground v.1.15,2013-07-18 16:33:00,
2013-07-18 11:35:00,89.5,72.3,29.98,WSW,254,8.0,12.0,57,0.00,,,0.00,846,Wunderground v.1.15,2013-07-18 16:35:00,
2013-07-18 11:36:00,89.6,72.3,29.99,SW,230,6.0,12.0,57,0.00,,,0.00,900,Wunderground v.1.15,2013-07-18 16:36:00,
2013-07-18 11:37:00,89.6,72.3,29.99,WSW,243,6.0,12.0,57,0.00,,,0.00,925,Wunderground v.1.15,2013-07-18 16:37:00,
2013-07-18 11:38:00,89.7,73.0,29.98,WSW,247,7.0,12.0,58,0.00,,,0.00,933,Wunderground v.1.15,2013-07-18 16:38:00,
2013-07-18 11:39:00,89.6,72.3,29.98,WSW,243,6.0,12.0,57,0.00,,,0.00,954,Wunderground v.1.15,2013-07-18 16:39:00,
2013-07-18 11:42:00,89.4,72.7,29.98,WSW,246,9.0,11.0,58,0.00,,,0.00,972,Wunderground v.1.15,2013-07-18 16:42:00,
2013-07-18 11:44:00,89.6,71.8,29.98,WSW,246,8.0,14.0,56,0.00,,,0.00,267,Wunderground v.1.15,2013-07-18 16:44:00,
2013-07-18 11:45:00,89.5,71.2,29.99,SW,232,6.0,14.0,55,0.00,,,0.00,267,Wunderground v.1.15,2013-07-18 16:45:00,
2013-07-18 11:47:00,89.6,72.3,29.98,WSW,240,8.0,14.0,57,0.00,,,0.00,984,Wunderground v.1.15,2013-07-18 16:47:00,
2013-07-18 11:48:00,89.5,71.7,29.98,WSW,241,6.0,14.0,56,0.00,,,0.00,313,Wunderground v.1.15,2013-07-18 16:48:00,
2013-07-18 11:49:00,89.3,71.5,29.98,WSW,247,8.0,14.0,56,0.00,,,0.00,279,Wunderground v.1.15,2013-07-18 16:49:00,
2013-07-18 11:50:00,89.1,71.4,29.98,WSW,253,8.0,8.0,56,0.00,,,0.00,279,Wunderground v.1.15,2013-07-18 16:50:00,
2013-07-18 11:52:00,89.0,72.3,29.98,SW,225,7.0,10.0,58,0.00,,,0.00,279,Wunderground v.1.15,2013-07-18 16:52:00,
2013-07-18 11:53:00,89.1,72.4,29.98,SW,235,7.0,10.0,58,0.00,,,0.00,933,Wunderground v.1.15,2013-07-18 16:53:00,
2013-07-18 11:54:00,89.3,72.6,29.98,West,261,8.0,10.0,58,0.00,,,0.00,956,Wunderground v.1.15,2013-07-18 16:54:00,
2013-07-18 11:55:00,89.4,71.1,29.98,WSW,242,6.0,13.0,55,0.00,,,0.00,956,Wunderground v.1.15,2013-07-18 16:55:00,
2013-07-18 11:56:00,89.5,71.2,29.98,West,265,8.0,13.0,55,0.00,,,0.00,956,Wunderground v.1.15,2013-07-18 16:56:00,
2013-07-18 11:59:00,90.0,73.2,29.98,SW,219,6.0,13.0,58,0.00,,,0.00,942,Wunderground v.1.15,2013-07-18 16:59:00,
2013-07-18 12:01:00,90.2,73.9,29.98,SW,234,9.0,9.0,59,0.00,,,0.00,874,Wunderground v.1.15,2013-07-18 17:01:00,
2013-07-18 12:02:00,90.2,72.4,29.98,SW,227,7.0,12.0,56,0.00,,,0.00,928,Wunderground v.1.15,2013-07-18 17:02:00,
2013-07-18 12:06:00,90.4,72.0,29.98,WSW,255,9.0,12.0,55,0.00,,,0.00,886,Wunderground v.1.15,2013-07-18 17:06:00,
2013-07-18 12:07:00,90.5,71.6,29.98,WSW,238,5.0,12.0,54,0.00,,,0.00,905,Wunderground v.1.15,2013-07-18 17:07:00,
2013-07-18 12:11:00,90.8,73.5,29.97,SW,236,7.0,8.0,57,0.00,,,0.00,898,Wunderground v.1.15,2013-07-18 17:11:00,
2013-07-18 12:12:00,90.9,72.5,29.97,SSW,193,7.0,11.0,55,0.00,,,0.00,898,Wunderground v.1.15,2013-07-18 17:12:00,
2013-07-18 12:13:00,91.0,72.0,29.97,SW,215,12.0,12.0,54,0.00,,,0.00,905,Wunderground v.1.15,2013-07-18 17:13:00,
2013-07-18 12:15:00,91.1,72.1,29.97,SW,214,11.0,12.0,54,0.00,,,0.00,900,Wunderground v.1.15,2013-07-18 17:15:00,
2013-07-18 12:16:00,91.1,72.1,29.97,SSW,205,8.0,12.0,54,0.00,,,0.00,898,Wunderground v.1.15,2013-07-18 17:16:00,
2013-07-18 12:17:00,91.1,71.0,29.97,WSW,246,6.0,12.0,52,0.00,,,0.00,905,Wunderground v.1.15,2013-07-18 17:17:00,
2013-07-18 12:18:00,91.2,72.2,29.97,SW,218,6.0,12.0,54,0.00,,,0.00,905,Wunderground v.1.15,2013-07-18 17:18:00,
2013-07-18 12:20:00,91.1,71.6,29.97,SW,222,5.0,8.0,53,0.00,,,0.00,905,Wunderground v.1.15,2013-07-18 17:20:00,
2013-07-18 12:22:00,91.3,71.2,29.97,SW,234,8.0,12.0,52,0.00,,,0.00,898,Wunderground v.1.15,2013-07-18 17:22:00,
2013-07-18 12:24:00,91.3,71.8,29.97,SW,223,9.0,12.0,53,0.00,,,0.00,893,Wunderground v.1.15,2013-07-18 17:24:00,
2013-07-18 12:28:00,90.9,70.3,29.97,SSW,211,7.0,13.0,51,0.00,,,0.00,928,Wunderground v.1.15,2013-07-18 17:28:00,
2013-07-18 12:29:00,91.0,71.5,29.97,SW,229,10.0,13.0,53,0.00,,,0.00,914,Wunderground v.1.15,2013-07-18 17:29:00,
2013-07-18 12:30:00,91.0,70.9,29.97,SW,219,11.0,11.0,52,0.00,,,0.00,912,Wunderground v.1.15,2013-07-18 17:30:00,
2013-07-18 12:31:00,91.0,70.9,29.97,WSW,238,10.0,13.0,52,0.00,,,0.00,907,Wunderground v.1.15,2013-07-18 17:31:00,
2013-07-18 12:32:00,90.9,70.8,29.97,WSW,244,11.0,14.0,52,0.00,,,0.00,921,Wunderground v.1.15,2013-07-18 17:32:00,
2013-07-18 12:34:00,90.9,72.0,29.97,WSW,241,15.0,15.0,54,0.00,,,0.00,981,Wunderground v.1.15,2013-07-18 17:34:00,
2013-07-18 12:36:00,90.5,70.5,29.97,WSW,242,7.0,15.0,52,0.00,,,0.00,188,Wunderground v.1.15,2013-07-18 17:36:00,
2013-07-18 12:38:00,89.8,69.8,29.97,WSW,243,10.0,15.0,52,0.00,,,0.00,144,Wunderground v.1.15,2013-07-18 17:38:00,
2013-07-18 12:39:00,89.8,70.9,29.97,WSW,237,11.0,15.0,54,0.00,,,0.00,949,Wunderground v.1.15,2013-07-18 17:39:00,
2013-07-18 12:40:00,89.9,71.0,29.97,SW,223,9.0,10.0,54,0.00,,,0.00,947,Wunderground v.1.15,2013-07-18 17:40:00,
2013-07-18 12:41:00,90.3,71.4,29.97,SSW,213,9.0,10.0,54,0.00,,,0.00,951,Wunderground v.1.15,2013-07-18 17:41:00,
2013-07-18 12:44:00,90.9,73.0,29.97,SW,232,10.0,12.0,56,0.00,,,0.00,935,Wunderground v.1.15,2013-07-18 17:44:00,
2013-07-18 12:46:00,91.5,72.5,29.96,SSW,202,7.0,12.0,54,0.00,,,0.00,919,Wunderground v.1.15,2013-07-18 17:46:00,
2013-07-18 12:47:00,91.7,72.1,29.96,WSW,238,8.0,12.0,53,0.00,,,0.00,932,Wunderground v.1.15,2013-07-18 17:47:00,
2013-07-18 12:51:00,91.7,72.7,29.96,SW,232,7.0,8.0,54,0.00,,,0.00,928,Wunderground v.1.15,2013-07-18 17:51:00,
2013-07-18 12:52:00,91.7,72.1,29.96,SW,218,8.0,8.0,53,0.00,,,0.00,956,Wunderground v.1.15,2013-07-18 17:52:00,
2013-07-18 12:56:00,91.3,71.2,29.96,SW,227,6.0,12.0,52,0.00,,,0.00,956,Wunderground v.1.15,2013-07-18 17:56:00,
2013-07-18 12:57:00,90.8,70.7,29.96,SW,228,7.0,12.0,52,0.00,,,0.00,956,Wunderground v.1.15,2013-07-18 17:57:00,
2013-07-18 12:58:00,90.8,70.7,29.96,SW,224,7.0,12.0,52,0.00,,,0.00,956,Wunderground v.1.15,2013-07-18 17:58:00,
2013-07-18 13:00:00,91.0,72.6,29.96,SW,215,5.0,12.0,55,0.00,,,0.00,947,Wunderground v.1.15,2013-07-18 18:00:00,
2013-07-18 13:02:00,91.8,71.7,29.96,SW,227,9.0,13.0,52,0.00,,,0.00,974,Wunderground v.1.15,2013-07-18 18:02:00,
2013-07-18 13:03:00,91.8,71.7,29.96,SW,231,7.0,13.0,52,0.00,,,0.00,991,Wunderground v.1.15,2013-07-18 18:03:00,
2013-07-18 13:05:00,91.7,71.6,29.96,SW,217,10.0,13.0,52,0.00,,,0.00,995,Wunderground v.1.15,2013-07-18 18:05:00,
2013-07-18 13:06:00,91.7,71.6,29.96,SW,225,8.0,13.0,52,0.00,,,0.00,995,Wunderground v.1.15,2013-07-18 18:06:00,
2013-07-18 13:08:00,91.8,70.5,29.96,SW,224,11.0,13.0,50,0.00,,,0.00,977,Wunderground v.1.15,2013-07-18 18:08:00,
2013-07-18 13:12:00,91.3,70.6,29.95,SSW,211,7.0,8.0,51,0.00,,,0.00,954,Wunderground v.1.15,2013-07-18 18:12:00,
2013-07-18 13:13:00,91.5,70.2,29.95,SW,235,10.0,14.0,50,0.00,,,0.00,937,Wunderground v.1.15,2013-07-18 18:13:00,
2013-07-18 13:14:00,91.5,70.8,29.95,South,178,7.0,14.0,51,0.00,,,0.00,946,Wunderground v.1.15,2013-07-18 18:14:00,
2013-07-18 13:16:00,91.4,70.7,29.95,SW,216,10.0,14.0,51,0.00,,,0.00,958,Wunderground v.1.15,2013-07-18 18:16:00,
2013-07-18 13:18:00,91.4,71.3,29.95,SW,215,12.0,14.0,52,0.00,,,0.00,981,Wunderground v.1.15,2013-07-18 18:18:00,
2013-07-18 13:19:00,91.4,71.3,29.95,SW,223,9.0,14.0,52,0.00,,,0.00,983,Wunderground v.1.15,2013-07-18 18:19:00,
2013-07-18 13:20:00,91.4,71.9,29.95,SSW,213,7.0,8.0,53,0.00,,,0.00,983,Wunderground v.1.15,2013-07-18 18:20:00,
2013-07-18 13:21:00,91.7,72.1,29.95,SW,234,9.0,10.0,53,0.00,,,0.00,983,Wunderground v.1.15,2013-07-18 18:21:00,
2013-07-18 13:24:00,91.7,71.6,29.95,SSW,198,8.0,15.0,52,0.00,,,0.00,969,Wunderground v.1.15,2013-07-18 18:24:00,
2013-07-18 13:25:00,91.7,71.6,29.95,SW,219,7.0,15.0,52,0.00,,,0.00,969,Wunderground v.1.15,2013-07-18 18:25:00,
2013-07-18 13:26:00,91.7,71.6,29.95,SSW,202,10.0,15.0,52,0.00,,,0.00,967,Wunderground v.1.15,2013-07-18 18:26:00,
2013-07-18 13:27:00,91.6,71.5,29.95,SSW,198,7.0,15.0,52,0.00,,,0.00,958,Wunderground v.1.15,2013-07-18 18:27:00,
2013-07-18 13:30:00,91.5,72.0,29.95,SSW,207,10.0,15.0,53,0.00,,,0.00,942,Wunderground v.1.15,2013-07-18 18:30:00,
2013-07-18 13:32:00,91.9,72.9,29.95,SW,227,7.0,12.0,54,0.00,,,0.00,954,Wunderground v.1.15,2013-07-18 18:32:00,
2013-07-18 13:35:00,92.2,72.0,29.95,WSW,238,11.0,13.0,52,0.00,,,0.00,993,Wunderground v.1.15,2013-07-18 18:35:00,
2013-07-18 13:36:00,92.1,71.9,29.95,SW,224,10.0,13.0,52,0.00,,,0.00,991,Wunderground v.1.15,2013-07-18 18:36:00,
2013-07-18 13:37:00,91.9,70.6,29.95,SSW,211,5.0,13.0,50,0.00,,,0.00,954,Wunderground v.1.15,2013-07-18 18:37:00,
2013-07-18 13:40:00,92.2,70.3,29.95,SW,217,5.0,9.0,49,0.00,,,0.00,933,Wunderground v.1.15,2013-07-18 18:40:00,
2013-07-18 13:41:00,92.2,70.9,29.95,SSW,206,9.0,14.0,50,0.00,,,0.00,940,Wunderground v.1.15,2013-07-18 18:41:00,
2013-07-18 13:43:00,92.1,70.2,29.95,SW,230,11.0,15.0,49,0.00,,,0.00,939,Wunderground v.1.15,2013-07-18 18:43:00,
2013-07-18 13:44:00,92.0,71.3,29.95,SSW,209,8.0,15.0,51,0.00,,,0.00,937,Wunderground v.1.15,2013-07-18 18:44:00,
2013-07-18 13:45:00,91.8,70.5,29.95,SW,229,10.0,17.0,50,0.00,,,0.00,921,Wunderground v.1.15,2013-07-18 18:45:00,
2013-07-18 13:47:00,91.9,71.2,29.95,SSW,200,7.0,17.0,51,0.00,,,0.00,923,Wunderground v.1.15,2013-07-18 18:47:00,
2013-07-18 13:48:00,91.9,71.2,29.94,SSW,198,5.0,17.0,51,0.00,,,0.00,930,Wunderground v.1.15,2013-07-18 18:48:00,
2013-07-18 13:49:00,92.1,70.8,29.94,SSW,202,3.0,17.0,50,0.00,,,0.00,918,Wunderground v.1.15,2013-07-18 18:49:00,
2013-07-18 13:51:00,92.2,70.3,29.94,SW,215,10.0,10.0,49,0.00,,,0.00,930,Wunderground v.1.15,2013-07-18 18:51:00,
2013-07-18 13:52:00,92.3,70.4,29.94,SW,234,10.0,10.0,49,0.00,,,0.00,935,Wunderground v.1.15,2013-07-18 18:52:00,
2013-07-18 13:53:00,92.3,70.4,29.94,SW,234,8.0,12.0,49,0.00,,,0.00,933,Wunderground v.1.15,2013-07-18 18:53:00,
2013-07-18 13:55:00,92.2,70.3,29.94,SW,220,10.0,12.0,49,0.00,,,0.00,919,Wunderground v.1.15,2013-07-18 18:55:00,
2013-07-18 13:59:00,92.3,70.4,29.94,South,169,10.0,12.0,49,0.00,,,0.00,951,Wunderground v.1.15,2013-07-18 18:59:00,
2013-07-18 14:01:00,92.5,70.6,29.94,South,171,9.0,9.0,49,0.00,,,0.00,947,Wunderground v.1.15,2013-07-18 19:01:00,
2013-07-18 14:03:00,92.6,70.6,29.94,SSW,194,7.0,16.0,49,0.00,,,0.00,940,Wunderground v.1.15,2013-07-18 19:03:00,
2013-07-18 14:04:00,92.7,70.7,29.94,South,189,8.0,16.0,49,0.00,,,0.00,939,Wunderground v.1.15,2013-07-18 19:04:00,
2013-07-18 14:05:00,92.7,70.1,29.94,SSW,213,9.0,16.0,48,0.00,,,0.00,933,Wunderground v.1.15,2013-07-18 19:05:00,
2013-07-18 14:07:00,92.6,70.6,29.94,SW,236,7.0,16.0,49,0.00,,,0.00,949,Wunderground v.1.15,2013-07-18 19:07:00,
2013-07-18 14:09:00,92.5,71.2,29.94,SSW,211,0.0,16.0,50,0.00,,,0.00,951,Wunderground v.1.15,2013-07-18 19:09:00,
2013-07-18 14:10:00,92.6,72.4,29.94,SSW,207,8.0,8.0,52,0.00,,,0.00,951,Wunderground v.1.15,2013-07-18 19:10:00,
2013-07-18 14:12:00,92.7,70.7,29.93,SW,215,8.0,9.0,49,0.00,,,0.00,954,Wunderground v.1.15,2013-07-18 19:12:00,
2013-07-18 14:13:00,92.7,70.7,29.94,SW,233,12.0,13.0,49,0.00,,,0.00,925,Wunderground v.1.15,2013-07-18 19:13:00,
2013-07-18 14:15:00,92.6,71.2,29.93,SW,225,13.0,13.0,50,0.00,,,0.00,926,Wunderground v.1.15,2013-07-18 19:15:00,
2013-07-18 14:17:00,92.5,70.6,29.93,WSW,245,11.0,15.0,49,0.00,,,0.00,940,Wunderground v.1.15,2013-07-18 19:17:00,
2013-07-18 14:18:00,92.4,70.5,29.93,SW,232,8.0,15.0,49,0.00,,,0.00,940,Wunderground v.1.15,2013-07-18 19:18:00,
2013-07-18 14:20:00,92.4,72.8,29.93,SW,234,7.0,9.0,53,0.00,,,0.00,925,Wunderground v.1.15,2013-07-18 19:20:00,
2013-07-18 14:21:00,92.7,70.1,29.93,SSW,196,9.0,11.0,48,0.00,,,0.00,921,Wunderground v.1.15,2013-07-18 19:21:00,
2013-07-18 14:22:00,92.9,70.3,29.93,South,174,12.0,12.0,48,0.00,,,0.00,912,Wunderground v.1.15,2013-07-18 19:22:00,
2013-07-18 14:23:00,92.9,70.3,29.93,SW,219,9.0,12.0,48,0.00,,,0.00,909,Wunderground v.1.15,2013-07-18 19:23:00,
2013-07-18 14:24:00,92.8,70.8,29.93,SSW,200,8.0,12.0,49,0.00,,,0.00,909,Wunderground v.1.15,2013-07-18 19:24:00,
2013-07-18 14:27:00,92.6,70.0,29.93,SW,221,9.0,15.0,48,0.00,,,0.00,905,Wunderground v.1.15,2013-07-18 19:27:00,
2013-07-18 14:29:00,92.4,70.5,29.93,SSW,198,2.0,15.0,49,0.00,,,0.00,909,Wunderground v.1.15,2013-07-18 19:29:00,
2013-07-18 14:32:00,92.7,70.1,29.93,SW,216,7.0,11.0,48,0.00,,,0.00,904,Wunderground v.1.15,2013-07-18 19:32:00,
2013-07-18 14:33:00,92.7,71.3,29.92,WSW,248,11.0,11.0,50,0.00,,,0.00,891,Wunderground v.1.15,2013-07-18 19:33:00,
2013-07-18 14:35:00,92.8,71.4,29.93,SSW,211,13.0,15.0,50,0.00,,,0.00,900,Wunderground v.1.15,2013-07-18 19:35:00,
2013-07-18 14:38:00,92.7,70.1,29.92,SSW,207,4.0,15.0,48,0.00,,,0.00,877,Wunderground v.1.15,2013-07-18 19:38:00,
2013-07-18 14:39:00,92.7,70.7,29.92,SSW,213,9.0,15.0,49,0.00,,,0.00,888,Wunderground v.1.15,2013-07-18 19:39:00,
2013-07-18 14:40:00,92.8,71.4,29.92,SSW,206,6.0,15.0,50,0.00,,,0.00,881,Wunderground v.1.15,2013-07-18 19:40:00,
2013-07-18 14:43:00,92.8,70.2,29.92,SSW,211,10.0,14.0,48,0.00,,,0.00,875,Wunderground v.1.15,2013-07-18 19:43:00,
2013-07-18 14:44:00,92.7,70.1,29.92,SW,227,6.0,14.0,48,0.00,,,0.00,904,Wunderground v.1.15,2013-07-18 19:44:00,
2013-07-18 14:48:00,92.2,70.9,29.92,SW,227,9.0,14.0,50,0.00,,,0.00,937,Wunderground v.1.15,2013-07-18 19:48:00,
2013-07-18 14:49:00,92.2,70.9,29.92,SSW,202,7.0,14.0,50,0.00,,,0.00,937,Wunderground v.1.15,2013-07-18 19:49:00,
2013-07-18 14:50:00,91.9,70.6,29.92,SSW,205,10.0,10.0,50,0.00,,,0.00,937,Wunderground v.1.15,2013-07-18 19:50:00,
2013-07-18 14:52:00,92.1,71.4,29.92,SSW,211,6.0,11.0,51,0.00,,,0.00,884,Wunderground v.1.15,2013-07-18 19:52:00,
2013-07-18 14:54:00,92.5,71.2,29.92,SW,229,7.0,11.0,50,0.00,,,0.00,879,Wunderground v.1.15,2013-07-18 19:54:00,
2013-07-18 14:55:00,92.7,72.5,29.92,SW,216,9.0,11.0,52,0.00,,,0.00,891,Wunderground v.1.15,2013-07-18 19:55:00,
2013-07-18 14:57:00,92.4,70.5,29.92,SW,215,8.0,14.0,49,0.00,,,0.00,907,Wunderground v.1.15,2013-07-18 19:57:00,
2013-07-18 14:58:00,92.2,71.5,29.92,SW,218,6.0,14.0,51,0.00,,,0.00,907,Wunderground v.1.15,2013-07-18 19:58:00,
2013-07-18 14:59:00,92.2,71.5,29.92,SSW,209,8.0,14.0,51,0.00,,,0.00,935,Wunderground v.1.15,2013-07-18 19:59:00,
2013-07-18 15:00:00,92.3,71.6,29.92,SSW,211,6.0,8.0,51,0.00,,,0.00,935,Wunderground v.1.15,2013-07-18 20:00:00,
2013-07-18 15:01:00,92.3,71.6,29.92,SW,229,8.0,9.0,51,0.00,,,0.00,935,Wunderground v.1.15,2013-07-18 20:01:00,
2013-07-18 15:02:00,91.7,71.0,29.92,SW,221,5.0,12.0,51,0.00,,,0.00,935,Wunderground v.1.15,2013-07-18 20:02:00,
2013-07-18 15:05:00,91.8,71.7,29.92,SW,217,10.0,12.0,52,0.00,,,0.00,907,Wunderground v.1.15,2013-07-18 20:05:00,
2013-07-18 15:06:00,92.0,71.9,29.92,South,179,5.0,12.0,52,0.00,,,0.00,907,Wunderground v.1.15,2013-07-18 20:06:00,
2013-07-18 15:07:00,92.3,71.0,29.92,SW,225,6.0,12.0,50,0.00,,,0.00,916,Wunderground v.1.15,2013-07-18 20:07:00,
2013-07-18 15:09:00,92.2,70.9,29.92,SSW,198,7.0,12.0,50,0.00,,,0.00,916,Wunderground v.1.15,2013-07-18 20:09:00,
2013-07-18 15:11:00,92.1,71.4,29.91,SSW,198,3.0,7.0,51,0.00,,,0.00,972,Wunderground v.1.15,2013-07-18 20:11:00,
2013-07-18 15:12:00,92.2,71.5,29.91,WSW,245,5.0,7.0,51,0.00,,,0.00,962,Wunderground v.1.15,2013-07-18 20:12:00,
2013-07-18 15:13:00,92.5,72.3,29.91,SSW,194,8.0,8.0,52,0.00,,,0.00,935,Wunderground v.1.15,2013-07-18 20:13:00,
2013-07-18 15:14:00,92.8,72.0,29.91,SW,215,10.0,10.0,51,0.00,,,0.00,884,Wunderground v.1.15,2013-07-18 20:14:00,
2013-07-18 15:16:00,93.0,72.8,29.91,SW,232,6.0,10.0,52,0.00,,,0.00,851,Wunderground v.1.15,2013-07-18 20:16:00,
2013-07-18 15:17:00,93.0,72.8,29.91,SW,232,11.0,11.0,52,0.00,,,0.00,856,Wunderground v.1.15,2013-07-18 20:17:00,
2013-07-18 15:18:00,93.0,71.0,29.91,WSW,243,10.0,13.0,49,0.00,,,0.00,856,Wunderground v.1.15,2013-07-18 20:18:00,
2013-07-18 15:19:00,92.9,71.5,29.91,SW,221,10.0,13.0,50,0.00,,,0.00,863,Wunderground v.1.15,2013-07-18 20:19:00,
2013-07-18 15:20:00,92.8,72.0,29.91,SW,234,6.0,13.0,51,0.00,,,0.00,877,Wunderground v.1.15,2013-07-18 20:20:00,
2013-07-18 15:22:00,92.4,70.5,29.91,SW,215,7.0,11.0,49,0.00,,,0.00,877,Wunderground v.1.15,2013-07-18 20:22:00,
2013-07-18 15:24:00,92.3,71.0,29.91,South,187,8.0,11.0,50,0.00,,,0.00,877,Wunderground v.1.15,2013-07-18 20:24:00,
2013-07-18 15:26:00,92.5,71.7,29.91,SW,236,6.0,11.0,51,0.00,,,0.00,881,Wunderground v.1.15,2013-07-18 20:26:00,
2013-07-18 15:28:00,92.9,71.5,29.91,SW,232,8.0,11.0,50,0.00,,,0.00,856,Wunderground v.1.15,2013-07-18 20:28:00,
2013-07-18 15:29:00,92.9,71.5,29.91,SW,228,10.0,12.0,50,0.00,,,0.00,840,Wunderground v.1.15,2013-07-18 20:29:00,
2013-07-18 15:30:00,92.6,70.0,29.91,SW,222,6.0,12.0,48,0.00,,,0.00,840,Wunderground v.1.15,2013-07-18 20:30:00,
2013-07-18 15:31:00,92.1,70.2,29.91,SW,221,8.0,8.0,49,0.00,,,0.00,181,Wunderground v.1.15,2013-07-18 20:31:00,
2013-07-18 15:34:00,90.9,70.3,29.91,SW,227,10.0,11.0,51,0.00,,,0.00,243,Wunderground v.1.15,2013-07-18 20:34:00,
2013-07-18 15:35:00,90.9,70.3,29.91,SW,224,5.0,11.0,51,0.00,,,0.00,243,Wunderground v.1.15,2013-07-18 20:35:00,
2013-07-18 15:36:00,91.3,72.3,29.91,SSW,211,14.0,14.0,54,0.00,,,0.00,904,Wunderground v.1.15,2013-07-18 20:36:00,
2013-07-18 15:37:00,91.7,72.1,29.91,WSW,244,10.0,14.0,53,0.00,,,0.00,904,Wunderground v.1.15,2013-07-18 20:37:00,
2013-07-18 15:40:00,91.1,69.9,29.91,SW,232,6.0,14.0,50,0.00,,,0.00,218,Wunderground v.1.15,2013-07-18 20:40:00,
2013-07-18 15:42:00,91.0,72.0,29.91,WSW,252,9.0,10.0,54,0.00,,,0.00,856,Wunderground v.1.15,2013-07-18 20:42:00,
2013-07-18 15:46:00,91.7,71.0,29.90,WSW,249,6.0,15.0,51,0.00,,,0.00,830,Wunderground v.1.15,2013-07-18 20:46:00,
2013-07-18 15:47:00,92.0,71.9,29.90,WSW,250,12.0,15.0,52,0.00,,,0.00,826,Wunderground v.1.15,2013-07-18 20:47:00,
2013-07-18 15:48:00,92.3,71.6,29.90,SW,219,6.0,15.0,51,0.00,,,0.00,817,Wunderground v.1.15,2013-07-18 20:48:00,
2013-07-18 15:49:00,92.4,71.6,29.90,WSW,249,12.0,15.0,51,0.00,,,0.00,823,Wunderground v.1.15,2013-07-18 20:49:00,
2013-07-18 15:50:00,92.4,71.1,29.90,WSW,245,11.0,15.0,50,0.00,,,0.00,856,Wunderground v.1.15,2013-07-18 20:50:00,
2013-07-18 15:51:00,92.4,71.1,29.90,SW,230,10.0,10.0,50,0.00,,,0.00,856,Wunderground v.1.15,2013-07-18 20:51:00,
2013-07-18 15:53:00,92.4,71.6,29.90,SW,236,7.0,12.0,51,0.00,,,0.00,854,Wunderground v.1.15,2013-07-18 20:53:00,
2013-07-18 15:54:00,92.4,71.1,29.90,WSW,242,7.0,13.0,50,0.00,,,0.00,870,Wunderground v.1.15,2013-07-18 20:54:00,
2013-07-18 15:55:00,92.6,70.6,29.90,WSW,251,9.0,13.0,49,0.00,,,0.00,868,Wunderground v.1.15,2013-07-18 20:55:00,
2013-07-18 15:56:00,92.6,70.6,29.90,SW,235,9.0,13.0,49,0.00,,,0.00,872,Wunderground v.1.15,2013-07-18 20:56:00,
2013-07-18 15:59:00,92.7,70.7,29.90,SSW,211,11.0,13.0,49,0.00,,,0.00,844,Wunderground v.1.15,2013-07-18 20:59:00,
2013-07-18 16:00:00,92.6,70.6,29.90,SW,232,9.0,13.0,49,0.00,,,0.00,810,Wunderground v.1.15,2013-07-18 21:00:00,
2013-07-18 16:01:00,92.4,71.1,29.90,WSW,241,10.0,11.0,50,0.00,,,0.00,812,Wunderground v.1.15,2013-07-18 21:01:00,
2013-07-18 16:02:00,92.4,71.1,29.90,WSW,248,9.0,11.0,50,0.00,,,0.00,812,Wunderground v.1.15,2013-07-18 21:02:00,
2013-07-18 16:06:00,92.6,71.2,29.90,SW,231,12.0,12.0,50,0.00,,,0.00,462,Wunderground v.1.15,2013-07-18 21:06:00,
2013-07-18 16:07:00,92.5,71.2,29.90,SW,226,7.0,12.0,50,0.00,,,0.00,462,Wunderground v.1.15,2013-07-18 21:07:00,
2013-07-18 16:08:00,92.3,69.8,29.90,SW,232,7.0,12.0,48,0.00,,,0.00,462,Wunderground v.1.15,2013-07-18 21:08:00,
2013-07-18 16:11:00,90.9,69.7,29.89,SW,219,8.0,8.0,50,0.00,,,0.00,186,Wunderground v.1.15,2013-07-18 21:11:00,
2013-07-18 16:12:00,90.8,70.2,29.89,SW,223,4.0,8.0,51,0.00,,,0.00,186,Wunderground v.1.15,2013-07-18 21:12:00,
2013-07-18 16:13:00,90.4,70.4,29.89,SW,234,5.0,8.0,52,0.00,,,0.00,225,Wunderground v.1.15,2013-07-18 21:13:00,
2013-07-18 16:14:00,90.4,70.4,29.89,WSW,242,4.0,8.0,52,0.00,,,0.00,225,Wunderground v.1.15,2013-07-18 21:14:00,
2013-07-18 16:16:00,91.1,71.0,29.89,SW,232,10.0,14.0,52,0.00,,,0.00,905,Wunderground v.1.15,2013-07-18 21:16:00,
2013-07-18 16:18:00,91.3,70.6,29.89,WSW,237,11.0,14.0,51,0.00,,,0.00,870,Wunderground v.1.15,2013-07-18 21:18:00,
2013-07-18 16:19:00,91.4,70.7,29.89,WSW,246,9.0,14.0,51,0.00,,,0.00,823,Wunderground v.1.15,2013-07-18 21:19:00,
2013-07-18 16:20:00,91.7,72.1,29.89,SW,219,7.0,11.0,53,0.00,,,0.00,810,Wunderground v.1.15,2013-07-18 21:20:00,
2013-07-18 16:22:00,91.5,71.4,29.89,SW,228,15.0,15.0,52,0.00,,,0.00,151,Wunderground v.1.15,2013-07-18 21:22:00,
2013-07-18 16:23:00,91.1,70.5,29.89,SW,219,9.0,15.0,51,0.00,,,0.00,151,Wunderground v.1.15,2013-07-18 21:23:00,
2013-07-18 16:24:00,90.6,69.4,29.89,SW,225,8.0,15.0,50,0.00,,,0.00,139,Wunderground v.1.15,2013-07-18 21:24:00,
2013-07-18 16:26:00,90.4,70.4,29.89,SW,229,5.0,15.0,52,0.00,,,0.00,139,Wunderground v.1.15,2013-07-18 21:26:00,
2013-07-18 16:27:00,90.6,70.6,29.89,South,181,7.0,15.0,52,0.00,,,0.00,758,Wunderground v.1.15,2013-07-18 21:27:00,
2013-07-18 16:30:00,91.8,71.1,29.89,WSW,238,8.0,8.0,51,0.00,,,0.00,742,Wunderground v.1.15,2013-07-18 21:30:00,
2013-07-18 16:31:00,91.9,70.0,29.89,SW,226,11.0,13.0,49,0.00,,,0.00,754,Wunderground v.1.15,2013-07-18 21:31:00,
2013-07-18 16:32:00,91.9,70.6,29.89,WSW,250,10.0,13.0,50,0.00,,,0.00,754,Wunderground v.1.15,2013-07-18 21:32:00,
2013-07-18 16:36:00,92.2,70.9,29.88,SW,217,14.0,14.0,50,0.00,,,0.00,770,Wunderground v.1.15,2013-07-18 21:36:00,
2013-07-18 16:37:00,92.2,71.5,29.88,SW,236,9.0,14.0,51,0.00,,,0.00,761,Wunderground v.1.15,2013-07-18 21:37:00,
2013-07-18 16:39:00,92.3,71.6,29.88,WSW,252,12.0,14.0,51,0.00,,,0.00,756,Wunderground v.1.15,2013-07-18 21:39:00,
2013-07-18 16:42:00,91.6,70.3,29.88,WSW,239,10.0,12.0,50,0.00,,,0.00,149,Wunderground v.1.15,2013-07-18 21:42:00,
2013-07-18 16:43:00,91.1,69.9,29.88,SW,216,12.0,12.0,50,0.00,,,0.00,179,Wunderground v.1.15,2013-07-18 21:43:00,
2013-07-18 16:45:00,90.6,70.6,29.88,SW,229,7.0,12.0,52,0.00,,,0.00,174,Wunderground v.1.15,2013-07-18 21:45:00,
2013-07-18 16:47:00,90.5,71.0,29.88,WSW,250,8.0,12.0,53,0.00,,,0.00,749,Wunderground v.1.15,2013-07-18 21:47:00,
2013-07-18 16:48:00,91.0,71.5,29.88,SW,227,11.0,12.0,53,0.00,,,0.00,719,Wunderground v.1.15,2013-07-18 21:48:00,
2013-07-18 16:50:00,91.5,71.4,29.88,WSW,240,6.0,12.0,52,0.00,,,0.00,703,Wunderground v.1.15,2013-07-18 21:50:00,
2013-07-18 16:51:00,91.8,71.1,29.88,WSW,239,9.0,11.0,51,0.00,,,0.00,687,Wunderground v.1.15,2013-07-18 21:51:00,
2013-07-18 16:52:00,91.9,70.6,29.88,SW,229,8.0,12.0,50,0.00,,,0.00,687,Wunderground v.1.15,2013-07-18 21:52:00,
2013-07-18 16:54:00,92.0,71.3,29.88,WSW,242,10.0,14.0,51,0.00,,,0.00,682,Wunderground v.1.15,2013-07-18 21:54:00,
2013-07-18 16:55:00,92.0,71.3,29.88,SW,228,13.0,14.0,51,0.00,,,0.00,682,Wunderground v.1.15,2013-07-18 21:55:00,
2013-07-18 16:57:00,91.6,70.9,29.88,SW,224,6.0,14.0,51,0.00,,,0.00,146,Wunderground v.1.15,2013-07-18 21:57:00,
2013-07-18 17:00:00,91.0,70.4,29.88,SW,217,9.0,9.0,51,0.00,,,0.00,675,Wunderground v.1.15,2013-07-18 22:00:00,
2013-07-18 17:01:00,91.0,70.4,29.88,SW,226,11.0,12.0,51,0.00,,,0.00,654,Wunderground v.1.15,2013-07-18 22:01:00,
2013-07-18 17:03:00,91.4,71.3,29.88,WSW,254,7.0,12.0,52,0.00,,,0.00,663,Wunderground v.1.15,2013-07-18 22:03:00,
2013-07-18 17:06:00,91.8,70.5,29.87,SW,227,11.0,18.0,50,0.00,,,0.00,663,Wunderground v.1.15,2013-07-18 22:06:00,
2013-07-18 17:07:00,91.8,70.5,29.87,SW,218,8.0,18.0,50,0.00,,,0.00,663,Wunderground v.1.15,2013-07-18 22:07:00,
2013-07-18 17:08:00,91.6,70.3,29.88,WSW,242,13.0,18.0,50,0.00,,,0.00,315,Wunderground v.1.15,2013-07-18 22:08:00,
2013-07-18 17:11:00,91.1,70.5,29.88,SSW,204,6.0,9.0,51,0.00,,,0.00,315,Wunderground v.1.15,2013-07-18 22:11:00,
2013-07-18 17:12:00,91.1,70.5,29.88,SW,223,6.0,9.0,51,0.00,,,0.00,661,Wunderground v.1.15,2013-07-18 22:12:00,
2013-07-18 17:13:00,91.1,69.9,29.87,SSW,196,7.0,9.0,50,0.00,,,0.00,661,Wunderground v.1.15,2013-07-18 22:13:00,
2013-07-18 17:14:00,91.2,70.5,29.87,South,178,7.0,9.0,51,0.00,,,0.00,615,Wunderground v.1.15,2013-07-18 22:14:00,
2013-07-18 17:17:00,91.7,71.0,29.87,SSW,211,7.0,14.0,51,0.00,,,0.00,582,Wunderground v.1.15,2013-07-18 22:17:00,
2013-07-18 17:18:00,91.8,71.1,29.87,SW,217,11.0,14.0,51,0.00,,,0.00,578,Wunderground v.1.15,2013-07-18 22:18:00,
2013-07-18 17:19:00,91.9,71.2,29.87,SW,217,8.0,14.0,51,0.00,,,0.00,578,Wunderground v.1.15,2013-07-18 22:19:00,
2013-07-18 17:22:00,92.0,71.3,29.87,SW,227,11.0,11.0,51,0.00,,,0.00,580,Wunderground v.1.15,2013-07-18 22:22:00,
2013-07-18 17:23:00,92.0,70.7,29.87,SW,215,7.0,11.0,50,0.00,,,0.00,570,Wunderground v.1.15,2013-07-18 22:23:00,
2013-07-18 17:24:00,92.0,71.3,29.87,SW,233,8.0,11.0,51,0.00,,,0.00,564,Wunderground v.1.15,2013-07-18 22:24:00,
2013-07-18 17:25:00,92.0,70.7,29.87,SW,219,8.0,13.0,50,0.00,,,0.00,550,Wunderground v.1.15,2013-07-18 22:25:00,
2013-07-18 17:26:00,91.9,70.6,29.87,SW,220,5.0,13.0,50,0.00,,,0.00,545,Wunderground v.1.15,2013-07-18 22:26:00,
2013-07-18 17:28:00,91.9,71.2,29.87,WSW,238,7.0,13.0,51,0.00,,,0.00,534,Wunderground v.1.15,2013-07-18 22:28:00,
2013-07-18 17:29:00,91.9,71.2,29.87,SW,223,6.0,13.0,51,0.00,,,0.00,534,Wunderground v.1.15,2013-07-18 22:29:00,
2013-07-18 17:30:00,91.9,71.2,29.87,WSW,246,13.0,13.0,51,0.00,,,0.00,534,Wunderground v.1.15,2013-07-18 22:30:00,
2013-07-18 17:31:00,91.8,71.1,29.87,SW,223,9.0,14.0,51,0.00,,,0.00,536,Wunderground v.1.15,2013-07-18 22:31:00,
2013-07-18 17:34:00,91.6,69.7,29.87,WSW,240,11.0,14.0,49,0.00,,,0.00,531,Wunderground v.1.15,2013-07-18 22:34:00,
2013-07-18 17:35:00,91.5,70.2,29.87,SW,223,8.0,19.0,50,0.00,,,0.00,519,Wunderground v.1.15,2013-07-18 22:35:00,
2013-07-18 17:37:00,91.4,70.7,29.87,SW,232,10.0,19.0,51,0.00,,,0.00,513,Wunderground v.1.15,2013-07-18 22:37:00,
2013-07-18 17:40:00,91.4,70.7,29.86,SW,231,3.0,10.0,51,0.00,,,0.00,508,Wunderground v.1.15,2013-07-18 22:40:00,
2013-07-18 17:41:00,91.5,70.2,29.86,SW,225,9.0,11.0,50,0.00,,,0.00,501,Wunderground v.1.15,2013-07-18 22:41:00,
2013-07-18 17:43:00,91.4,70.7,29.86,SW,225,8.0,14.0,51,0.00,,,0.00,492,Wunderground v.1.15,2013-07-18 22:43:00,
2013-07-18 17:45:00,91.3,70.6,29.86,SW,219,9.0,16.0,51,0.00,,,0.00,476,Wunderground v.1.15,2013-07-18 22:45:00,
2013-07-18 17:47:00,91.3,71.2,29.86,SW,233,4.0,16.0,52,0.00,,,0.00,471,Wunderground v.1.15,2013-07-18 22:47:00,
2013-07-18 17:49:00,91.4,71.3,29.86,SW,215,11.0,16.0,52,0.00,,,0.00,476,Wunderground v.1.15,2013-07-18 22:49:00,
2013-07-18 17:50:00,91.4,71.3,29.86,SW,236,8.0,16.0,52,0.00,,,0.00,482,Wunderground v.1.15,2013-07-18 22:50:00,
2013-07-18 17:51:00,91.4,71.9,29.86,SSW,211,7.0,10.0,53,0.00,,,0.00,492,Wunderground v.1.15,2013-07-18 22:51:00,
2013-07-18 17:53:00,91.4,70.7,29.86,SW,215,8.0,10.0,51,0.00,,,0.00,478,Wunderground v.1.15,2013-07-18 22:53:00,
2013-07-18 17:54:00,91.3,70.6,29.86,SW,222,12.0,12.0,51,0.00,,,0.00,480,Wunderground v.1.15,2013-07-18 22:54:00,
2013-07-18 17:55:00,91.3,70.6,29.86,SW,224,10.0,12.0,51,0.00,,,0.00,468,Wunderground v.1.15,2013-07-18 22:55:00,
2013-07-18 17:56:00,91.2,70.5,29.86,SW,217,7.0,12.0,51,0.00,,,0.00,459,Wunderground v.1.15,2013-07-18 22:56:00,
2013-07-18 17:59:00,91.0,70.4,29.86,SW,219,10.0,12.0,51,0.00,,,0.00,438,Wunderground v.1.15,2013-07-18 22:59:00,
2013-07-18 18:00:00,90.9,70.3,29.86,SSW,207,7.0,8.0,51,0.00,,,0.00,432,Wunderground v.1.15,2013-07-18 23:00:00,
2013-07-18 18:02:00,91.0,70.9,29.86,SW,226,10.0,10.0,52,0.00,,,0.00,429,Wunderground v.1.15,2013-07-18 23:02:00,
2013-07-18 18:04:00,91.0,70.9,29.86,WSW,242,8.0,12.0,52,0.00,,,0.00,427,Wunderground v.1.15,2013-07-18 23:04:00,
2013-07-18 18:05:00,91.1,71.0,29.86,WSW,241,4.0,12.0,52,0.00,,,0.00,422,Wunderground v.1.15,2013-07-18 23:05:00,
2013-07-18 18:07:00,91.0,70.9,29.86,WSW,242,10.0,12.0,52,0.00,,,0.00,413,Wunderground v.1.15,2013-07-18 23:07:00,
2013-07-18 18:08:00,91.0,70.9,29.86,SW,236,8.0,12.0,52,0.00,,,0.00,408,Wunderground v.1.15,2013-07-18 23:08:00,
2013-07-18 18:09:00,90.9,70.3,29.86,SW,219,13.0,13.0,51,0.00,,,0.00,404,Wunderground v.1.15,2013-07-18 23:09:00,
2013-07-18 18:10:00,90.8,70.7,29.86,SSW,205,8.0,11.0,52,0.00,,,0.00,403,Wunderground v.1.15,2013-07-18 23:10:00,
2013-07-18 18:11:00,90.8,70.2,29.86,SW,229,13.0,13.0,51,0.00,,,0.00,403,Wunderground v.1.15,2013-07-18 23:11:00,
2013-07-18 18:13:00,90.6,70.6,29.86,SW,236,8.0,13.0,52,0.00,,,0.00,392,Wunderground v.1.15,2013-07-18 23:13:00,
2013-07-18 18:14:00,90.6,70.6,29.85,SW,236,10.0,13.0,52,0.00,,,0.00,390,Wunderground v.1.15,2013-07-18 23:14:00,
2013-07-18 18:15:00,90.5,71.0,29.85,SW,226,6.0,13.0,53,0.00,,,0.00,385,Wunderground v.1.15,2013-07-18 23:15:00,
2013-07-18 18:16:00,90.5,70.5,29.85,SW,223,7.0,13.0,52,0.00,,,0.00,376,Wunderground v.1.15,2013-07-18 23:16:00,
2013-07-18 18:20:00,90.5,70.5,29.85,South,188,9.0,9.0,52,0.00,,,0.00,373,Wunderground v.1.15,2013-07-18 23:20:00,
2013-07-18 18:21:00,90.5,70.5,29.85,WSW,253,11.0,11.0,52,0.00,,,0.00,360,Wunderground v.1.15,2013-07-18 23:21:00,
2013-07-18 18:23:00,90.4,70.9,29.85,SW,233,11.0,12.0,53,0.00,,,0.00,359,Wunderground v.1.15,2013-07-18 23:23:00,
2013-07-18 18:26:00,90.3,70.8,29.85,SSW,208,11.0,12.0,53,0.00,,,0.00,350,Wunderground v.1.15,2013-07-18 23:26:00,
2013-07-18 18:29:00,90.3,70.3,29.85,SW,233,7.0,12.0,52,0.00,,,0.00,339,Wunderground v.1.15,2013-07-18 23:29:00,
2013-07-18 18:31:00,90.3,70.8,29.85,SSW,211,7.0,12.0,53,0.00,,,0.00,334,Wunderground v.1.15,2013-07-18 23:31:00,
2013-07-18 18:32:00,90.2,70.8,29.84,SW,222,6.0,12.0,53,0.00,,,0.00,330,Wunderground v.1.15,2013-07-18 23:32:00,
2013-07-18 18:33:00,90.2,70.2,29.85,SW,219,9.0,12.0,52,0.00,,,0.00,323,Wunderground v.1.15,2013-07-18 23:33:00,
2013-07-18 18:37:00,90.0,70.6,29.85,SSW,197,7.0,12.0,53,0.00,,,0.00,316,Wunderground v.1.15,2013-07-18 23:37:00,
2013-07-18 18:38:00,90.0,70.6,29.85,SSW,209,7.0,12.0,53,0.00,,,0.00,315,Wunderground v.1.15,2013-07-18 23:38:00,
2013-07-18 18:39:00,90.1,71.2,29.84,SW,222,6.0,12.0,54,0.00,,,0.00,309,Wunderground v.1.15,2013-07-18 23:39:00,
2013-07-18 18:40:00,90.1,70.7,29.84,SW,219,12.0,12.0,53,0.00,,,0.00,306,Wunderground v.1.15,2013-07-18 23:40:00,
2013-07-18 18:42:00,90.0,70.0,29.84,SW,227,7.0,14.0,52,0.00,,,0.00,301,Wunderground v.1.15,2013-07-18 23:42:00,
2013-07-18 18:44:00,89.9,70.5,29.84,SSW,192,6.0,14.0,53,0.00,,,0.00,297,Wunderground v.1.15,2013-07-18 23:44:00,
2013-07-18 18:46:00,89.9,70.5,29.84,SSW,205,8.0,14.0,53,0.00,,,0.00,288,Wunderground v.1.15,2013-07-18 23:46:00,
2013-07-18 18:49:00,89.9,69.9,29.84,SW,232,4.0,14.0,52,0.00,,,0.00,279,Wunderground v.1.15,2013-07-18 23:49:00,
2013-07-18 18:50:00,89.8,70.4,29.84,SW,234,6.0,8.0,53,0.00,,,0.00,278,Wunderground v.1.15,2013-07-18 23:50:00,
2013-07-18 18:51:00,89.8,70.4,29.84,SW,227,13.0,13.0,53,0.00,,,0.00,274,Wunderground v.1.15,2013-07-18 23:51:00,
2013-07-18 18:54:00,89.7,69.7,29.84,SW,232,4.0,13.0,52,0.00,,,0.00,265,Wunderground v.1.15,2013-07-18 23:54:00,
2013-07-18 18:55:00,89.7,69.7,29.84,WSW,238,11.0,13.0,52,0.00,,,0.00,265,Wunderground v.1.15,2013-07-18 23:55:00,
2013-07-18 18:56:00,89.6,69.6,29.84,WSW,244,10.0,14.0,52,0.00,,,0.00,258,Wunderground v.1.15,2013-07-18 23:56:00,
2013-07-18 18:59:00,89.6,70.2,29.84,WSW,237,5.0,14.0,53,0.00,,,0.00,248,Wunderground v.1.15,2013-07-18 23:59:00,
2013-07-18 19:00:00,89.6,70.2,29.84,SW,227,5.0,9.0,53,0.00,,,0.00,246,Wunderground v.1.15,2013-07-19 00:00:00,
2013-07-18 19:02:00,89.5,71.2,29.85,SW,234,7.0,9.0,55,0.00,,,0.00,241,Wunderground v.1.15,2013-07-19 00:02:00,
2013-07-18 19:04:00,89.4,71.1,29.84,SW,230,3.0,9.0,55,0.00,,,0.00,236,Wunderground v.1.15,2013-07-19 00:04:00,
2013-07-18 19:05:00,89.4,71.1,29.84,SW,224,5.0,9.0,55,0.00,,,0.00,230,Wunderground v.1.15,2013-07-19 00:05:00,
2013-07-18 19:06:00,89.3,71.0,29.84,SSW,210,3.0,9.0,55,0.00,,,0.00,229,Wunderground v.1.15,2013-07-19 00:06:00,
2013-07-18 19:07:00,89.3,71.0,29.84,SW,220,1.0,9.0,55,0.00,,,0.00,229,Wunderground v.1.15,2013-07-19 00:07:00,
2013-07-18 19:11:00,89.2,70.9,29.84,SW,220,4.0,7.0,55,0.00,,,0.00,211,Wunderground v.1.15,2013-07-19 00:11:00,
2013-07-18 19:12:00,89.1,70.3,29.84,SW,216,8.0,8.0,54,0.00,,,0.00,207,Wunderground v.1.15,2013-07-19 00:12:00,
2013-07-18 19:13:00,89.1,70.3,29.84,SW,217,7.0,9.0,54,0.00,,,0.00,206,Wunderground v.1.15,2013-07-19 00:13:00,
2013-07-18 19:16:00,89.0,70.2,29.84,SSW,211,5.0,9.0,54,0.00,,,0.00,197,Wunderground v.1.15,2013-07-19 00:16:00,
2013-07-18 19:17:00,89.0,70.7,29.84,South,190,5.0,9.0,55,0.00,,,0.00,190,Wunderground v.1.15,2013-07-19 00:17:00,
2013-07-18 19:18:00,88.9,70.6,29.84,SSW,212,7.0,9.0,55,0.00,,,0.00,188,Wunderground v.1.15,2013-07-19 00:18:00,
2013-07-18 19:20:00,88.8,70.5,29.84,SW,215,6.0,7.0,55,0.00,,,0.00,179,Wunderground v.1.15,2013-07-19 00:20:00,
2013-07-18 19:22:00,88.8,70.5,29.84,SW,224,2.0,7.0,55,0.00,,,0.00,176,Wunderground v.1.15,2013-07-19 00:22:00,
2013-07-18 19:24:00,88.7,70.5,29.85,SW,225,8.0,8.0,55,0.00,,,0.00,167,Wunderground v.1.15,2013-07-19 00:24:00,
2013-07-18 19:27:00,88.6,70.9,29.84,SSW,198,3.0,8.0,56,0.00,,,0.00,158,Wunderground v.1.15,2013-07-19 00:27:00,
2013-07-18 19:28:00,88.5,70.3,29.84,SW,215,4.0,8.0,55,0.00,,,0.00,156,Wunderground v.1.15,2013-07-19 00:28:00,
2013-07-18 19:30:00,88.5,70.3,29.85,SW,225,3.0,6.0,55,0.00,,,0.00,149,Wunderground v.1.15,2013-07-19 00:30:00,
2013-07-18 19:33:00,88.3,70.1,29.85,SW,224,4.0,7.0,55,0.00,,,0.00,139,Wunderground v.1.15,2013-07-19 00:33:00,
2013-07-18 19:34:00,88.2,70.5,29.85,SW,227,7.0,7.0,56,0.00,,,0.00,132,Wunderground v.1.15,2013-07-19 00:34:00,
2013-07-18 19:36:00,88.2,70.5,29.84,SSW,213,6.0,8.0,56,0.00,,,0.00,127,Wunderground v.1.15,2013-07-19 00:36:00,
2013-07-18 19:38:00,88.1,70.4,29.84,SW,227,6.0,8.0,56,0.00,,,0.00,121,Wunderground v.1.15,2013-07-19 00:38:00,
2013-07-18 19:39:00,88.0,70.3,29.84,SW,219,4.0,8.0,56,0.00,,,0.00,120,Wunderground v.1.15,2013-07-19 00:39:00,
2013-07-18 19:42:00,87.9,70.8,29.84,SSW,213,3.0,5.0,57,0.00,,,0.00,111,Wunderground v.1.15,2013-07-19 00:42:00,
2013-07-18 19:43:00,87.8,71.2,29.84,SW,216,3.0,5.0,58,0.00,,,0.00,105,Wunderground v.1.15,2013-07-19 00:43:00,
2013-07-18 19:45:00,87.7,70.6,29.84,SW,219,3.0,5.0,57,0.00,,,0.00,98,Wunderground v.1.15,2013-07-19 00:45:00,
2013-07-18 19:46:00,87.6,71.0,29.84,SSW,212,3.0,5.0,58,0.00,,,0.00,98,Wunderground v.1.15,2013-07-19 00:46:00,
2013-07-18 19:47:00,87.6,70.5,29.84,SSW,213,3.0,5.0,57,0.00,,,0.00,93,Wunderground v.1.15,2013-07-19 00:47:00,
2013-07-18 19:48:00,87.5,70.9,29.84,SSW,202,3.0,5.0,58,0.00,,,0.00,91,Wunderground v.1.15,2013-07-19 00:48:00,
2013-07-18 19:49:00,87.5,70.9,29.84,SW,221,4.0,6.0,58,0.00,,,0.00,88,Wunderground v.1.15,2013-07-19 00:49:00,
2013-07-18 19:51:00,87.4,70.8,29.84,SSW,211,3.0,4.0,58,0.00,,,0.00,81,Wunderground v.1.15,2013-07-19 00:51:00,
2013-07-18 19:52:00,87.3,70.7,29.84,SW,215,5.0,5.0,58,0.00,,,0.00,79,Wunderground v.1.15,2013-07-19 00:52:00,
2013-07-18 19:54:00,87.3,70.7,29.84,SSW,203,5.0,5.0,58,0.00,,,0.00,74,Wunderground v.1.15,2013-07-19 00:54:00,
2013-07-18 19:55:00,87.2,70.1,29.84,SSW,205,3.0,5.0,57,0.00,,,0.00,72,Wunderground v.1.15,2013-07-19 00:55:00,
2013-07-18 19:57:00,87.1,70.5,29.84,SW,214,0.0,5.0,58,0.00,,,0.00,69,Wunderground v.1.15,2013-07-19 00:57:00,
2013-07-18 19:59:00,86.9,70.3,29.84,SW,218,2.0,6.0,58,0.00,,,0.00,62,Wunderground v.1.15,2013-07-19 00:59:00,
2013-07-18 20:00:00,86.8,70.8,29.84,SW,218,1.0,2.0,59,0.00,,,0.00,60,Wunderground v.1.15,2013-07-19 01:00:00,
2013-07-18 20:02:00,86.6,70.6,29.84,SSW,213,2.0,4.0,59,0.00,,,0.00,56,Wunderground v.1.15,2013-07-19 01:02:00,
2013-07-18 20:03:00,86.6,70.6,29.84,SW,220,2.0,4.0,59,0.00,,,0.00,54,Wunderground v.1.15,2013-07-19 01:03:00,
2013-07-18 20:04:00,86.5,71.0,29.84,SW,223,0.0,4.0,60,0.00,,,0.00,51,Wunderground v.1.15,2013-07-19 01:04:00,
2013-07-18 20:06:00,86.3,70.8,29.84,SW,219,1.0,4.0,60,0.00,,,0.00,47,Wunderground v.1.15,2013-07-19 01:06:00,
2013-07-18 20:07:00,86.1,70.6,29.84,SSW,194,0.0,4.0,60,0.00,,,0.00,44,Wunderground v.1.15,2013-07-19 01:07:00,
2013-07-18 20:08:00,86.0,70.5,29.84,SSW,199,2.0,4.0,60,0.00,,,0.00,44,Wunderground v.1.15,2013-07-19 01:08:00,
2013-07-18 20:09:00,85.9,70.9,29.84,SSW,205,2.0,4.0,61,0.00,,,0.00,40,Wunderground v.1.15,2013-07-19 01:09:00,
2013-07-18 20:11:00,85.8,70.8,29.84,SSW,205,0.0,2.0,61,0.00,,,0.00,37,Wunderground v.1.15,2013-07-19 01:11:00,
2013-07-18 20:13:00,85.6,70.6,29.84,SSW,205,0.0,2.0,61,0.00,,,0.00,33,Wunderground v.1.15,2013-07-19 01:13:00,
2013-07-18 20:15:00,85.4,70.4,29.84,SSW,205,0.0,2.0,61,0.00,,,0.00,30,Wunderground v.1.15,2013-07-19 01:15:00,
2013-07-18 20:17:00,85.3,70.8,29.84,SSW,205,0.0,2.0,62,0.00,,,0.00,28,Wunderground v.1.15,2013-07-19 01:17:00,
2013-07-18 20:18:00,85.2,70.7,29.84,SSW,205,0.0,2.0,62,0.00,,,0.00,28,Wunderground v.1.15,2013-07-19 01:18:00,
2013-07-18 20:19:00,85.1,70.6,29.84,SSW,205,0.0,2.0,62,0.00,,,0.00,25,Wunderground v.1.15,2013-07-19 01:19:00,
2013-07-18 20:21:00,85.0,71.0,29.84,SSW,205,0.0,0.0,63,0.00,,,0.00,21,Wunderground v.1.15,2013-07-19 01:21:00,
2013-07-18 20:23:00,84.8,70.8,29.84,SSW,205,0.0,0.0,63,0.00,,,0.00,19,Wunderground v.1.15,2013-07-19 01:23:00,
2013-07-18 20:24:00,84.6,71.1,29.83,SSW,205,0.0,0.0,64,0.00,,,0.00,18,Wunderground v.1.15,2013-07-19 01:24:00,
2013-07-18 20:27:00,84.2,71.2,29.83,SSW,205,0.0,0.0,65,0.00,,,0.00,16,Wunderground v.1.15,2013-07-19 01:27:00,
2013-07-18 20:29:00,84.1,71.1,29.84,SSW,205,0.0,0.0,65,0.00,,,0.00,14,Wunderground v.1.15,2013-07-19 01:29:00,
2013-07-18 20:31:00,83.8,71.2,29.83,SSW,205,0.0,0.0,66,0.00,,,0.00,14,Wunderground v.1.15,2013-07-19 01:31:00,
2013-07-18 20:33:00,83.6,71.0,29.83,SSW,205,0.0,0.0,66,0.00,,,0.00,12,Wunderground v.1.15,2013-07-19 01:33:00,
2013-07-18 20:35:00,83.4,71.3,29.83,SSW,205,0.0,0.0,67,0.00,,,0.00,12,Wunderground v.1.15,2013-07-19 01:35:00,
2013-07-18 20:38:00,83.2,71.1,29.83,SSW,192,0.0,0.0,67,0.00,,,0.00,9,Wunderground v.1.15,2013-07-19 01:38:00,
2013-07-18 20:40:00,83.1,71.4,29.83,SSW,192,0.0,0.0,68,0.00,,,0.00,9,Wunderground v.1.15,2013-07-19 01:40:00,
2013-07-18 20:42:00,83.0,71.3,29.83,SSW,192,0.0,0.0,68,0.00,,,0.00,7,Wunderground v.1.15,2013-07-19 01:42:00,
2013-07-18 20:43:00,83.0,71.3,29.83,South,191,0.0,0.0,68,0.00,,,0.00,7,Wunderground v.1.15,2013-07-19 01:43:00,
2013-07-18 20:45:00,82.9,71.3,29.83,South,191,0.0,0.0,68,0.00,,,0.00,5,Wunderground v.1.15,2013-07-19 01:45:00,
2013-07-18 20:46:00,82.9,71.3,29.83,South,191,0.0,1.0,68,0.00,,,0.00,5,Wunderground v.1.15,2013-07-19 01:46:00,
2013-07-18 20:47:00,82.8,71.2,29.83,South,191,0.0,1.0,68,0.00,,,0.00,5,Wunderground v.1.15,2013-07-19 01:47:00,
2013-07-18 20:49:00,82.7,71.1,29.83,South,191,0.0,1.0,68,0.00,,,0.00,5,Wunderground v.1.15,2013-07-19 01:49:00,
2013-07-18 20:50:00,82.6,71.0,29.83,South,190,0.0,0.0,68,0.00,,,0.00,0,Wunderground v.1.15,2013-07-19 01:50:00,
2013-07-18 20:51:00,82.5,70.9,29.83,South,190,0.0,0.0,68,0.00,,,0.00,0,Wunderground v.1.15,2013-07-19 01:51:00,
2013-07-18 20:53:00,82.5,70.9,29.83,South,189,0.0,1.0,68,0.00,,,0.00,0,Wunderground v.1.15,2013-07-19 01:53:00,
2013-07-18 20:54:00,82.4,71.2,29.83,South,186,0.0,1.0,69,0.00,,,0.00,0,Wunderground v.1.15,2013-07-19 01:54:00,
2013-07-18 20:55:00,82.4,71.2,29.83,South,190,0.0,1.0,69,0.00,,,0.00,0,Wunderground v.1.15,2013-07-19 01:55:00,
2013-07-18 20:57:00,82.3,71.1,29.83,South,190,0.0,1.0,69,0.00,,,0.00,0,Wunderground v.1.15,2013-07-19 01:57:00,
2013-07-18 20:58:00,82.2,71.0,29.83,South,190,0.0,1.0,69,0.00,,,0.00,0,Wunderground v.1.15,2013-07-19 01:58:00,
2013-07-18 21:00:00,82.1,70.9,29.83,South,189,0.0,0.0,69,0.00,,,0.00,0,Wunderground v.1.15,2013-07-19 02:00:00,
2013-07-18 21:01:00,82.0,70.8,29.83,South,189,0.0,0.0,69,0.00,,,0.00,0,Wunderground v.1.15,2013-07-19 02:01:00,
2013-07-18 21:02:00,82.0,70.8,29.83,South,189,0.0,0.0,69,0.00,,,0.00,0,Wunderground v.1.15,2013-07-19 02:02:00,
2013-07-18 21:03:00,81.9,70.7,29.83,South,189,0.0,0.0,69,0.00,,,0.00,0,Wunderground v.1.15,2013-07-19 02:03:00,
2013-07-18 21:06:00,81.7,71.0,29.83,South,189,0.0,0.0,70,0.00,,,0.00,0,Wunderground v.1.15,2013-07-19 02:06:00,
2013-07-18 21:07:00,81.6,70.9,29.83,South,189,0.0,0.0,70,0.00,,,0.00,0,Wunderground v.1.15,2013-07-19 02:07:00,
2013-07-18 21:09:00,81.5,70.8,29.83,South,187,0.0,0.0,70,0.00,,,0.00,0,Wunderground v.1.15,2013-07-19 02:09:00,
2013-07-18 21:11:00,81.5,70.8,29.83,South,184,2.0,2.0,70,0.00,,,0.00,0,Wunderground v.1.15,2013-07-19 02:11:00,
2013-07-18 21:13:00,81.6,70.9,29.82,South,184,0.0,2.0,70,0.00,,,0.00,0,Wunderground v.1.15,2013-07-19 02:13:00,
2013-07-18 21:14:00,81.7,70.5,29.83,South,182,0.0,2.0,69,0.00,,,0.00,0,Wunderground v.1.15,2013-07-19 02:14:00,
2013-07-18 21:15:00,81.7,70.5,29.83,South,182,0.0,2.0,69,0.00,,,0.00,0,Wunderground v.1.15,2013-07-19 02:15:00,
2013-07-18 21:17:00,81.7,70.5,29.83,South,182,1.0,2.0,69,0.00,,,0.00,0,Wunderground v.1.15,2013-07-19 02:17:00,
2013-07-18 21:18:00,81.8,70.6,29.83,South,183,1.0,2.0,69,0.00,,,0.00,0,Wunderground v.1.15,2013-07-19 02:18:00,
2013-07-18 21:20:00,81.8,70.6,29.83,SSW,192,4.0,4.0,69,0.00,,,0.00,0,Wunderground v.1.15,2013-07-19 02:20:00,
2013-07-18 21:22:00,81.8,70.6,29.83,SSW,198,2.0,4.0,69,0.00,,,0.00,0,Wunderground v.1.15,2013-07-19 02:22:00,
2013-07-18 21:23:00,81.7,70.5,29.83,SSW,195,0.0,4.0,69,0.00,,,0.00,0,Wunderground v.1.15,2013-07-19 02:23:00,
2013-07-18 21:26:00,81.5,70.3,29.83,SSW,198,1.0,4.0,69,0.00,,,0.00,0,Wunderground v.1.15,2013-07-19 02:26:00,
2013-07-18 21:28:00,81.4,70.7,29.83,South,186,0.0,4.0,70,0.00,,,0.00,0,Wunderground v.1.15,2013-07-19 02:28:00,
2013-07-18 21:29:00,81.3,70.6,29.83,South,186,0.0,4.0,70,0.00,,,0.00,0,Wunderground v.1.15,2013-07-19 02:29:00,
2013-07-18 21:30:00,81.2,70.5,29.83,South,186,0.0,0.0,70,0.00,,,0.00,0,Wunderground v.1.15,2013-07-19 02:30:00,
2013-07-18 21:31:00,81.1,70.4,29.83,South,190,0.0,0.0,70,0.00,,,0.00,0,Wunderground v.1.15,2013-07-19 02:31:00,
2013-07-18 21:33:00,80.9,70.6,29.83,South,190,0.0,1.0,71,0.00,,,0.00,0,Wunderground v.1.15,2013-07-19 02:33:00,
2013-07-18 21:34:00,80.8,70.5,29.83,South,190,0.0,1.0,71,0.00,,,0.00,0,Wunderground v.1.15,2013-07-19 02:34:00,
2013-07-18 21:35:00,80.7,70.4,29.83,South,190,0.0,1.0,71,0.00,,,0.00,0,Wunderground v.1.15,2013-07-19 02:35:00,
2013-07-18 21:37:00,80.5,70.2,29.83,South,190,0.0,1.0,71,0.00,,,0.00,0,Wunderground v.1.15,2013-07-19 02:37:00,
2013-07-18 21:39:00,80.3,70.4,29.83,South,190,0.0,1.0,72,0.00,,,0.00,0,Wunderground v.1.15,2013-07-19 02:39:00,
2013-07-18 21:40:00,80.2,70.4,29.83,South,190,0.0,0.0,72,0.00,,,0.00,0,Wunderground v.1.15,2013-07-19 02:40:00,
2013-07-18 21:41:00,80.2,70.4,29.83,South,190,0.0,0.0,72,0.00,,,0.00,0,Wunderground v.1.15,2013-07-19 02:41:00,
2013-07-18 21:42:00,80.1,70.3,29.83,South,190,0.0,0.0,72,0.00,,,0.00,0,Wunderground v.1.15,2013-07-19 02:42:00,
2013-07-18 21:45:00,79.9,70.5,29.83,South,190,0.0,0.0,73,0.00,,,0.00,0,Wunderground v.1.15,2013-07-19 02:45:00,
2013-07-18 21:47:00,79.7,70.3,29.83,South,190,0.0,0.0,73,0.00,,,0.00,0,Wunderground v.1.15,2013-07-19 02:47:00,
2013-07-18 21:48:00,79.6,70.2,29.83,South,190,0.0,0.0,73,0.00,,,0.00,0,Wunderground v.1.15,2013-07-19 02:48:00,
2013-07-18 21:50:00,79.4,70.4,29.84,South,190,0.0,0.0,74,0.00,,,0.00,0,Wunderground v.1.15,2013-07-19 02:50:00,
2013-07-18 21:52:00,79.2,70.2,29.83,South,190,0.0,0.0,74,0.00,,,0.00,0,Wunderground v.1.15,2013-07-19 02:52:00,
2013-07-18 21:53:00,79.2,70.2,29.84,South,190,0.0,0.0,74,0.00,,,0.00,0,Wunderground v.1.15,2013-07-19 02:53:00,
2013-07-18 21:54:00,79.0,70.4,29.84,South,190,0.0,0.0,75,0.00,,,0.00,0,Wunderground v.1.15,2013-07-19 02:54:00,
2013-07-18 21:55:00,78.9,70.3,29.84,South,190,0.0,0.0,75,0.00,,,0.00,0,Wunderground v.1.15,2013-07-19 02:55:00,
2013-07-18 21:57:00,78.8,70.2,29.83,South,190,0.0,0.0,75,0.00,,,0.00,0,Wunderground v.1.15,2013-07-19 02:57:00,
2013-07-18 22:00:00,78.7,70.1,29.83,South,190,0.0,0.0,75,0.00,,,0.00,0,Wunderground v.1.15,2013-07-19 03:00:00,
2013-07-18 22:02:00,78.6,70.0,29.84,South,190,0.0,0.0,75,0.00,,,0.00,0,Wunderground v.1.15,2013-07-19 03:02:00,
2013-07-18 22:03:00,78.5,69.9,29.83,South,190,0.0,0.0,75,0.00,,,0.00,0,Wunderground v.1.15,2013-07-19 03:03:00,
2013-07-18 22:05:00,78.5,70.3,29.84,South,190,0.0,0.0,76,0.00,,,0.00,0,Wunderground v.1.15,2013-07-19 03:05:00,
2013-07-18 22:06:00,78.5,70.3,29.84,South,190,0.0,0.0,76,0.00,,,0.00,0,Wunderground v.1.15,2013-07-19 03:06:00,
2013-07-18 22:07:00,78.4,70.2,29.83,South,190,0.0,0.0,76,0.00,,,0.00,0,Wunderground v.1.15,2013-07-19 03:07:00,
2013-07-18 22:08:00,78.4,70.2,29.83,South,190,0.0,0.0,76,0.00,,,0.00,0,Wunderground v.1.15,2013-07-19 03:08:00,
2013-07-18 22:11:00,78.3,70.1,29.84,South,190,0.0,0.0,76,0.00,,,0.00,0,Wunderground v.1.15,2013-07-19 03:11:00,
2013-07-18 22:12:00,78.3,70.1,29.84,South,190,0.0,0.0,76,0.00,,,0.00,0,Wunderground v.1.15,2013-07-19 03:12:00,
2013-07-18 22:15:00,78.2,70.0,29.84,South,190,0.0,0.0,76,0.00,,,0.00,0,Wunderground v.1.15,2013-07-19 03:15:00,
2013-07-18 22:16:00,78.2,70.0,29.84,South,190,0.0,0.0,76,0.00,,,0.00,0,Wunderground v.1.15,2013-07-19 03:16:00,
2013-07-18 22:18:00,78.2,70.0,29.83,South,190,0.0,0.0,76,0.00,,,0.00,0,Wunderground v.1.15,2013-07-19 03:18:00,
2013-07-18 22:22:00,78.2,70.0,29.83,South,190,0.0,0.0,76,0.00,,,0.00,0,Wunderground v.1.15,2013-07-19 03:22:00,
2013-07-18 22:23:00,78.3,70.1,29.83,South,190,0.0,0.0,76,0.00,,,0.00,0,Wunderground v.1.15,2013-07-19 03:23:00,
2013-07-18 22:24:00,78.3,70.1,29.84,South,190,0.0,0.0,76,0.00,,,0.00,0,Wunderground v.1.15,2013-07-19 03:24:00,
2013-07-18 22:26:00,78.4,70.2,29.83,South,190,0.0,0.0,76,0.00,,,0.00,0,Wunderground v.1.15,2013-07-19 03:26:00,
2013-07-18 22:28:00,78.5,69.9,29.83,South,190,0.0,2.0,75,0.00,,,0.00,0,Wunderground v.1.15,2013-07-19 03:28:00,
2013-07-18 22:29:00,78.6,70.0,29.83,South,190,0.0,2.0,75,0.00,,,0.00,0,Wunderground v.1.15,2013-07-19 03:29:00,
2013-07-18 22:32:00,78.7,70.1,29.83,South,190,1.0,1.0,75,0.00,,,0.00,0,Wunderground v.1.15,2013-07-19 03:32:00,
2013-07-18 22:34:00,78.7,70.1,29.83,South,189,0.0,1.0,75,0.00,,,0.00,0,Wunderground v.1.15,2013-07-19 03:34:00,
2013-07-18 22:37:00,78.7,70.1,29.83,South,189,0.0,1.0,75,0.00,,,0.00,0,Wunderground v.1.15,2013-07-19 03:37:00,
2013-07-18 22:38:00,78.7,70.1,29.83,South,189,0.0,1.0,75,0.00,,,0.00,0,Wunderground v.1.15,2013-07-19 03:38:00,
2013-07-18 22:39:00,78.6,70.0,29.83,South,189,1.0,1.0,75,0.00,,,0.00,0,Wunderground v.1.15,2013-07-19 03:39:00,
2013-07-18 22:41:00,78.5,69.9,29.83,South,188,0.0,0.0,75,0.00,,,0.00,0,Wunderground v.1.15,2013-07-19 03:41:00,
2013-07-18 22:42:00,78.5,69.9,29.83,South,189,0.0,0.0,75,0.00,,,0.00,0,Wunderground v.1.15,2013-07-19 03:42:00,
2013-07-18 22:43:00,78.5,69.9,29.83,South,189,0.0,0.0,75,0.00,,,0.00,0,Wunderground v.1.15,2013-07-19 03:43:00,
2013-07-18 22:44:00,78.4,70.2,29.83,South,189,0.0,0.0,76,0.00,,,0.00,0,Wunderground v.1.15,2013-07-19 03:44:00,
2013-07-18 22:46:00,78.3,70.1,29.83,South,189,0.0,0.0,76,0.00,,,0.00,0,Wunderground v.1.15,2013-07-19 03:46:00,
2013-07-18 22:48:00,78.2,70.0,29.83,South,189,0.0,0.0,76,0.00,,,0.00,0,Wunderground v.1.15,2013-07-19 03:48:00,
2013-07-18 22:50:00,78.1,69.9,29.83,South,188,0.0,0.0,76,0.00,,,0.00,0,Wunderground v.1.15,2013-07-19 03:50:00,
2013-07-18 22:51:00,78.2,70.0,29.83,South,189,0.0,0.0,76,0.00,,,0.00,0,Wunderground v.1.15,2013-07-19 03:51:00,
2013-07-18 22:53:00,78.2,70.0,29.83,South,188,0.0,0.0,76,0.00,,,0.00,0,Wunderground v.1.15,2013-07-19 03:53:00,
2013-07-18 22:54:00,78.2,70.0,29.83,South,189,0.0,1.0,76,0.00,,,0.00,0,Wunderground v.1.15,2013-07-19 03:54:00,
2013-07-18 22:56:00,78.3,70.1,29.83,South,189,0.0,1.0,76,0.00,,,0.00,0,Wunderground v.1.15,2013-07-19 03:56:00,
2013-07-18 22:57:00,78.3,70.1,29.83,South,189,0.0,1.0,76,0.00,,,0.00,0,Wunderground v.1.15,2013-07-19 03:57:00,
2013-07-18 22:58:00,78.4,69.8,29.83,South,188,0.0,1.0,75,0.00,,,0.00,0,Wunderground v.1.15,2013-07-19 03:58:00,
2013-07-18 23:00:00,78.4,69.8,29.83,South,189,0.0,2.0,75,0.00,,,0.00,0,Wunderground v.1.15,2013-07-19 04:00:00,
2013-07-18 23:01:00,78.4,69.8,29.83,South,189,1.0,2.0,75,0.00,,,0.00,0,Wunderground v.1.15,2013-07-19 04:01:00,
2013-07-18 23:02:00,78.4,69.8,29.83,South,186,1.0,2.0,75,0.00,,,0.00,0,Wunderground v.1.15,2013-07-19 04:02:00,
2013-07-18 23:03:00,78.4,69.8,29.83,South,190,1.0,2.0,75,0.00,,,0.00,0,Wunderground v.1.15,2013-07-19 04:03:00,
2013-07-18 23:07:00,78.4,69.8,29.83,South,190,0.0,2.0,75,0.00,,,0.00,0,Wunderground v.1.15,2013-07-19 04:07:00,
2013-07-18 23:09:00,78.3,69.7,29.83,South,190,1.0,2.0,75,0.00,,,0.00,0,Wunderground v.1.15,2013-07-19 04:09:00,
2013-07-18 23:11:00,78.2,69.6,29.83,South,190,0.0,1.0,75,0.00,,,0.00,0,Wunderground v.1.15,2013-07-19 04:11:00,
2013-07-18 23:12:00,78.2,70.0,29.83,South,189,0.0,1.0,76,0.00,,,0.00,0,Wunderground v.1.15,2013-07-19 04:12:00,
2013-07-18 23:14:00,78.2,70.0,29.83,South,189,0.0,2.0,76,0.00,,,0.00,0,Wunderground v.1.15,2013-07-19 04:14:00,
2013-07-18 23:18:00,78.2,70.0,29.83,South,190,1.0,2.0,76,0.00,,,0.00,0,Wunderground v.1.15,2013-07-19 04:18:00,
2013-07-18 23:19:00,78.2,70.0,29.83,South,190,0.0,2.0,76,0.00,,,0.00,0,Wunderground v.1.15,2013-07-19 04:19:00,
2013-07-18 23:21:00,78.2,70.0,29.83,South,178,0.0,1.0,76,0.00,,,0.00,0,Wunderground v.1.15,2013-07-19 04:21:00,
2013-07-18 23:22:00,78.2,69.6,29.83,South,175,1.0,1.0,75,0.00,,,0.00,0,Wunderground v.1.15,2013-07-19 04:22:00,
2013-07-18 23:24:00,78.2,69.6,29.83,South,182,2.0,2.0,75,0.00,,,0.00,0,Wunderground v.1.15,2013-07-19 04:24:00,
2013-07-18 23:26:00,78.2,69.6,29.82,South,186,1.0,2.0,75,0.00,,,0.00,0,Wunderground v.1.15,2013-07-19 04:26:00,
2013-07-18 23:27:00,78.3,69.7,29.83,South,186,0.0,2.0,75,0.00,,,0.00,0,Wunderground v.1.15,2013-07-19 04:27:00,
2013-07-18 23:28:00,78.3,69.7,29.83,South,184,2.0,2.0,75,0.00,,,0.00,0,Wunderground v.1.15,2013-07-19 04:28:00,
2013-07-18 23:29:00,78.3,69.7,29.83,South,184,0.0,2.0,75,0.00,,,0.00,0,Wunderground v.1.15,2013-07-19 04:29:00,
2013-07-18 23:31:00,78.3,69.7,29.83,South,184,0.0,1.0,75,0.00,,,0.00,0,Wunderground v.1.15,2013-07-19 04:31:00,
2013-07-18 23:33:00,78.3,69.7,29.83,South,184,0.0,1.0,75,0.00,,,0.00,0,Wunderground v.1.15,2013-07-19 04:33:00,
2013-07-18 23:34:00,78.3,69.7,29.83,South,184,0.0,1.0,75,0.00,,,0.00,0,Wunderground v.1.15,2013-07-19 04:34:00,
2013-07-18 23:35:00,78.2,69.6,29.83,South,184,0.0,1.0,75,0.00,,,0.00,0,Wunderground v.1.15,2013-07-19 04:35:00,
2013-07-18 23:37:00,78.2,69.6,29.83,South,190,0.0,2.0,75,0.00,,,0.00,0,Wunderground v.1.15,2013-07-19 04:37:00,
2013-07-18 23:40:00,78.1,69.5,29.83,SSW,200,1.0,1.0,75,0.00,,,0.00,0,Wunderground v.1.15,2013-07-19 04:40:00,
2013-07-18 23:41:00,78.1,69.5,29.83,SSW,200,1.0,2.0,75,0.00,,,0.00,0,Wunderground v.1.15,2013-07-19 04:41:00,
2013-07-18 23:43:00,78.0,69.8,29.83,SSW,196,0.0,2.0,76,0.00,,,0.00,0,Wunderground v.1.15,2013-07-19 04:43:00,
2013-07-18 23:46:00,77.9,69.7,29.83,South,180,2.0,3.0,76,0.00,,,0.00,0,Wunderground v.1.15,2013-07-19 04:46:00,
2013-07-18 23:47:00,77.9,69.7,29.83,South,189,2.0,3.0,76,0.00,,,0.00,0,Wunderground v.1.15,2013-07-19 04:47:00,
2013-07-18 23:48:00,77.9,69.7,29.82,South,189,0.0,3.0,76,0.00,,,0.00,0,Wunderground v.1.15,2013-07-19 04:48:00,
2013-07-18 23:52:00,77.9,69.7,29.82,South,187,0.0,2.0,76,0.00,,,0.00,0,Wunderground v.1.15,2013-07-19 04:52:00,
2013-07-18 23:53:00,77.8,69.6,29.82,SSW,199,1.0,2.0,76,0.00,,,0.00,0,Wunderground v.1.15,2013-07-19 04:53:00,
2013-07-18 23:54:00,77.8,69.6,29.82,SSW,196,2.0,2.0,76,0.00,,,0.00,0,Wunderground v.1.15,2013-07-19 04:54:00,
2013-07-18 23:55:00,77.8,69.6,29.82,SSW,198,1.0,5.0,76,0.00,,,0.00,0,Wunderground v.1.15,2013-07-19 04:55:00,
2013-07-18 23:58:00,77.8,69.6,29.82,SSW,194,0.0,5.0,76,0.00,,,0.00,0,Wunderground v.1.15,2013-07-19 04:58:00,
2013-07-18 23:59:00,77.8,69.6,29.82,SSW,196,0.0,5.0,76,0.00,,,0.00,0,Wunderground v.1.15,2013-07-19 04:59:00,